[{"header": {"dx": 0.06612293990616946, "dy": 0.0552356325346848, "nx": 98, "ny": 59, "la1": 35.046912555036876, "la2": 31.78801023549047, "lo1": -121.43107172385933, "lo2": -114.95102361305473, "refTime": "2026041613", "parameterCategory": 1, "parameterNumber": 2}, "data": [8.46, 8.2, 7.91, 7.69, 7.46, 7.04, 6.81, 6.56, 6.8, 6.1, 4.74, 3.6, 3.36, 3.14, 0.0, -2.82, -5.2, -7.9, -10.4, -11.87, -12.96, -12.96, -11.03, -10.0, -9.58, -10.4, -10.8, -12.14, -11.71, -11.45, -8.85, -4.1, -0.0, 3.53, 7.27, 9.13, 9.29, 9.39, 9.29, 9.89, 9.33, 10.6, 10.68, 10.48, 11.53, 14.49, 19.09, 20.7, 16.4, 13.44, 2.35, 8.18, 10.75, 11.06, 11.06, 11.69, 11.63, 12.52, 12.65, 12.99, 12.99, 13.19, 12.95, 11.9, 11.53, 11.29, 12.07, 12.36, 13.38, 14.17, 14.65, 14.3, 14.38, 13.99, 13.58, 14.3, 13.99, 14.3, -13.19, -10.43, -11.17, -12.45, -12.96, -11.87, -10.8, -10.4, -12.07, 11.18, 7.9, 10.0, 10.41, 11.37, 11.53, 12.65, 13.48, 14.11, 12.96, 12.83, 7.93, 7.93, 8.2, 8.0, 7.8, 7.6, 7.2, 7.0, 6.37, 7.06, 5.73, 4.38, 5.8, 8.85, 9.17, 5.4, 0.0, -3.82, -10.04, -10.4, -12.33, -12.46, -12.96, -12.58, -9.2, -8.94, -9.3, -10.8, -11.71, -12.52, -13.88, -11.53, -3.96, -0.0, 5.69, 8.48, 7.98, 8.94, 9.16, 9.75, 11.44, 11.64, 10.37, 10.84, 14.0, 17.24, 19.98, 15.88, 13.86, 4.66, 8.18, 10.75, 10.75, 10.75, 10.75, 11.06, 12.11, 12.16, 12.94, 12.81, 13.19, 13.39, 12.79, 11.88, 10.94, 11.35, 11.57, 12.18, 13.38, 14.39, 14.79, 14.71, 15.27, 14.11, 13.59, 13.48, 13.62, 14.3, -13.19, -10.43, -11.17, -12.45, -12.96, -11.87, -10.8, -10.4, -12.07, 11.18, 7.9, 10.0, 10.41, 11.37, 11.53, 12.65, 13.48, 14.11, 12.96, 12.83, 7.93, 7.93, 8.2, 7.71, 8.3, 7.46, 7.04, 7.57, 7.21, 6.6, 6.2, 5.2, 6.67, 7.24, 10.4, 10.4, 9.67, 2.82, -5.4, -11.12, -10.16, -10.87, -11.5, -13.23, -13.86, -8.58, -8.58, -9.6, -10.84, -11.62, -14.31, -15.2, -14.3, -0.0, 8.06, 8.94, 8.49, 8.77, 9.13, 9.97, 9.66, 10.81, 12.64, 14.54, 16.2, 16.35, 14.37, 13.41, 8.18, 10.75, 11.54, 12.16, 11.44, 11.44, 10.43, 10.75, 11.76, 12.94, 13.19, 13.19, 13.56, 12.99, 12.39, 11.35, 10.82, 11.07, 11.8, 13.16, 13.16, 13.97, 14.39, 14.65, 15.18, 15.2, 14.47, 14.18, 14.75, 14.84, 14.3, -10.43, -6.4, -11.16, -12.96, -11.45, -11.03, -11.62, -7.9, 11.18, 10.6, 10.73, 12.5, 11.64, 11.1, 11.52, 14.3, 10.73, 11.12, 12.04, 7.93, 7.93, 7.93, 8.0, 8.0, 7.8, 7.6, 7.4, 7.76, 6.99, 6.57, 5.6, 4.93, 6.45, 8.22, 9.3, 9.3, 9.66, 2.82, -8.53, -10.0, -10.0, -9.7, -10.17, -11.56, -12.96, -9.2, -8.18, -9.33, -11.18, -9.66, -9.8, -9.77, -4.95, 8.85, 9.6, 8.82, 9.32, 9.0, 9.48, 11.7, 13.59, 13.91, 13.12, 12.27, 12.1, 13.86, 13.07, 13.19, 13.7, 13.19, 12.65, 12.27, 11.1, 11.03, 11.52, 12.74, 12.99, 13.56, 13.15, 13.89, 12.99, 12.07, 10.82, 10.3, 10.92, 11.53, 12.22, 13.53, 14.2, 14.4, 13.99, 14.99, 14.75, 14.3, 13.59, 14.75, 14.99, 14.75, -13.15, -9.48, -0.0, -12.96, -11.28, -11.18, -11.62, 8.53, 11.62, 9.58, 12.11, 13.03, 11.8, 11.09, 13.41, -0.0, 6.9, 11.6, 12.42, 7.93, 7.93, 7.93, 8.0, 7.71, 7.69, 7.46, 7.95, 7.36, 7.32, 6.0, 5.25, 4.75, 5.2, 6.2, 7.26, 8.22, 9.08, 9.3, -2.93, -11.12, -11.87, -11.03, -11.18, -9.96, -11.61, -12.27, -12.07, -11.18, -7.27, -3.39, -5.0, -5.64, -3.29, 1.77, 7.1, 8.83, 9.8, 10.25, 10.8, 11.19, 11.17, 11.58, 13.44, 13.86, 13.82, 14.14, 14.14, 14.58, 14.75, 13.7, 12.5, 11.9, 11.8, 11.64, 12.45, 13.19, 13.39, 13.56, 13.47, 13.47, 12.17, 10.82, 9.87, 9.92, 11.18, 12.52, 11.7, 13.43, 15.61, 16.78, 15.8, 16.17, 16.19, 15.43, 12.71, 12.87, 14.3, 12.87, -13.41, -12.96, 12.96, -8.53, -10.96, -10.96, -8.22, 11.45, 11.03, 11.72, 13.03, 11.9, 11.6, 12.52, -0.0, -0.0, 10.73, 12.83, 12.52, 7.93, 7.93, 7.93, 8.0, 7.71, 8.0, 7.8, 7.6, 7.53, 7.15, 6.31, 5.2, 5.99, 5.98, 5.75, 6.2, 6.2, 7.26, 7.9, 2.28, -9.3, -10.43, -11.99, -12.33, -11.5, -10.04, -8.53, -7.24, -5.8, 0.0, 3.11, 4.6, 0.0, 0.0, 1.71, 3.81, 5.62, 8.95, 10.34, 8.31, 6.94, 10.12, 13.15, 14.3, 14.3, 14.72, 14.64, 14.27, 14.3, 14.23, 13.27, 12.66, 11.75, 11.64, 12.51, 13.19, 13.86, 13.86, 13.77, 13.47, 12.93, 10.99, 9.8, 10.17, 10.19, 11.48, 12.85, 11.7, 12.52, 16.22, 19.15, 17.78, 15.54, 16.36, 17.02, 16.27, 13.15, 12.58, 12.04, 9.17, -5.4, 0.0, -5.0, -9.97, -9.3, 0.0, 7.54, 10.59, 12.45, 11.9, 11.12, 13.41, -0.0, -5.8, 5.8, 13.15, 12.96, 12.42, 7.93, 7.93, 7.93, 7.74, 7.45, 7.71, 7.5, 8.12, 7.4, 7.45, 6.1, 5.0, 5.77, 6.71, 8.53, 6.44, 6.98, 6.45, 7.56, 5.54, -4.15, -10.47, -10.25, -8.37, -8.15, -6.76, -5.2, -4.24, -4.93, -4.23, 0.0, 6.95, 9.33, 6.64, 5.0, 4.99, 4.49, 8.23, 8.22, 5.1, 3.96, 5.11, 8.31, 12.0, 13.74, 14.23, 15.55, 15.15, 13.77, 13.72, 14.16, 12.74, 12.42, 12.81, 12.42, 12.66, 13.28, 13.28, 13.44, 13.25, 12.21, 10.59, 10.75, 10.69, 9.49, 11.06, 12.57, 13.01, 13.2, 15.99, 19.25, 18.26, 15.56, 15.6, 16.37, 16.3, 14.81, 12.72, 11.99, 13.01, 3.68, 0.0, -1.98, -3.82, -1.98, 1.55, 6.2, 10.12, 11.72, 11.16, 9.48, 13.41, -6.0, -6.0, 9.48, 12.96, 12.39, 11.98, 7.74, 7.74, 7.74, 7.74, 8.0, 7.71, 7.8, 7.6, 7.7, 7.11, 5.8, 4.73, 5.77, 7.26, 9.42, 8.58, 9.08, 8.53, 8.22, 8.82, 10.0, 10.0, -4.48, -7.44, -6.98, -4.9, -3.82, -5.08, -6.16, -6.2, -3.53, 0.0, 2.19, 6.7, 6.98, 6.0, 5.0, 5.75, 8.85, 6.97, 3.53, 4.24, 5.8, 7.95, 9.6, 14.39, 15.65, 14.39, 12.27, 13.28, 12.27, 12.45, 11.53, 12.03, 12.03, 12.39, 12.66, 12.87, 12.94, 12.18, 10.8, 10.18, 10.75, 10.18, 9.66, 12.01, 14.33, 14.24, 13.99, 15.09, 17.19, 17.62, 15.95, 15.62, 15.17, 14.53, 13.57, 12.18, 12.1, 14.09, 13.86, 2.72, -1.33, 0.0, 0.0, 3.85, 6.9, 8.83, 9.84, 10.37, 12.96, -11.6, -9.48, -0.0, 12.72, 12.52, 11.95, 11.28, 7.74, 7.74, 7.74, 7.74, 7.74, 7.45, 7.8, 7.88, 7.7, 7.38, 6.27, 4.84, 5.11, 5.08, 7.02, 8.53, 8.53, 9.16, 8.82, 9.3, 10.84, 11.62, 11.62, 0.0, -6.7, -5.6, -4.4, -6.98, -7.95, -5.32, -1.28, 0.0, 1.13, 3.47, 5.0, 5.7, 5.95, 5.95, 9.67, 10.0, 5.6, 5.6, 7.28, 8.38, 10.12, -0.0, -0.0, 7.6, 10.3, 10.75, 11.8, 10.37, 10.47, 12.03, 12.03, 12.39, 12.87, 12.18, 12.08, 11.64, 11.44, 10.75, 8.43, 8.68, 10.3, 13.59, 15.87, 15.12, 14.31, 14.4, 15.87, 16.41, 16.54, 15.65, 14.75, 14.3, 13.81, 12.85, 13.32, 15.13, 15.45, 8.38, -1.58, 0.0, 1.38, 3.96, 6.87, 9.17, 9.77, 12.3, -0.0, -0.0, -9.17, 13.41, 13.41, 12.39, 11.28, 11.71, 7.54, 7.74, 7.74, 7.74, 7.74, 8.0, 7.52, 7.6, 7.76, 7.08, 6.95, 6.2, 5.8, 4.31, 4.43, 5.6, 6.67, 6.67, 5.99, 5.0, 5.52, 6.2, 9.67, 11.03, 0.0, -7.9, -6.14, -7.44, -8.05, -3.82, 0.0, 1.42, 0.0, 0.0, 0.0, 4.32, 7.59, 8.3, 11.03, 3.96, 8.53, 10.41, 10.8, 11.62, 9.67, 5.8, 6.0, 6.4, 9.77, 7.76, 9.44, 10.43, 10.99, 12.03, 12.39, 13.07, 13.27, 11.88, 11.0, 12.27, 12.0, 9.61, 9.67, 7.98, 10.3, 14.19, 16.6, 14.94, 13.72, 14.3, 14.75, 15.65, 16.09, 16.07, 15.62, 13.72, 12.94, 11.33, 11.86, 14.29, 15.2, 16.54, -2.72, -2.57, 0.0, 2.2, 7.13, 8.66, 11.16, 12.96, 12.96, 12.52, 0.0, 7.19, 11.12, 11.5, 11.87, 11.5, 7.54, 7.54, 7.74, 7.74, 7.74, 8.0, 7.8, 7.4, 7.47, 7.54, 7.39, 7.16, 7.48, 6.69, 5.55, 5.16, 5.67, 5.81, 5.62, 5.18, 2.57, 1.56, 2.43, 6.94, 12.96, -5.95, -7.27, -6.95, -6.17, -1.77, 0.0, 0.0, -6.95, -4.4, 0.0, 3.68, 9.67, 11.62, 3.68, -0.0, -0.0, -0.0, 11.62, 12.07, 11.62, 9.67, 7.24, 7.82, 7.19, 6.0, 9.44, 13.1, 13.65, 14.39, 15.27, 15.84, 16.31, 13.86, 9.83, 12.72, 9.67, 5.65, 7.4, 7.2, 8.53, 12.64, 16.3, 16.34, 15.05, 12.42, 13.44, 14.36, 15.75, 15.87, 14.97, 13.01, 10.55, 9.58, 12.36, 13.59, 14.7, 15.56, 16.09, -7.6, -5.09, 0.0, 4.81, 10.75, 14.3, 13.41, 8.85, 5.6, 3.04, 2.45, 7.54, 10.55, 11.6, 10.79, 7.54, 7.54, 7.74, 7.74, 7.74, 7.74, 7.8, 7.65, 7.4, 7.54, 7.62, 7.62, 8.16, 8.01, 7.44, 6.67, 5.7, 5.6, 5.45, 4.61, 3.69, 1.34, 0.0, 0.0, 13.41, 12.52, -12.07, -7.6, -7.59, -9.6, -10.0, -10.18, -7.59, -6.17, -7.27, 10.73, 10.73, -8.22, -10.4, -10.04, -8.85, -10.04, -10.4, 11.62, 10.73, 9.2, 10.04, 10.41, 10.79, 11.53, 12.79, 15.69, 18.21, 19.64, 18.85, 18.91, 19.84, 18.78, 11.84, -0.0, -0.0, 5.8, 5.51, 3.9, 3.49, 9.34, 15.8, 18.97, 18.84, 16.99, 14.51, 13.25, 13.99, 14.19, 12.1, 10.52, 10.73, 12.09, 12.52, 12.86, 14.13, 15.53, 16.99, 16.96, 18.78, 17.19, 16.54, 15.2, 14.75, 13.86, 11.2, 3.68, 0.0, 1.91, 5.6, 8.44, 9.96, 10.12, 7.54, 7.54, 7.54, 7.74, 7.74, 7.74, 7.8, 7.86, 7.92, 7.98, 8.05, 8.35, 8.35, 8.43, 8.85, 8.38, 7.67, 6.87, 6.8, 6.2, 5.14, 3.58, 3.69, 14.75, 14.3, -9.8, -4.24, -2.54, -3.82, -6.95, -10.6, -10.6, -9.6, -10.08, -9.97, -10.28, -10.28, -11.18, -10.84, -9.58, -9.97, -9.3, -9.3, -9.83, 10.28, 10.73, 8.22, 10.04, 10.79, 11.99, 11.2, 12.45, 13.15, 14.23, 16.76, 18.33, 19.91, 22.12, 16.09, -6.7, -3.9, 1.83, 1.93, -0.0, -0.0, 4.88, 12.4, 16.63, 17.39, 20.37, 19.99, 20.8, 14.16, 10.68, 8.8, 10.58, 13.43, 13.65, 13.65, 14.79, 13.39, 13.23, 15.12, 15.69, 16.99, 18.41, 19.29, 15.99, 15.61, 14.3, 13.86, 10.4, 3.53, 2.28, 5.6, 8.3, 9.17, 8.05, 7.54, 7.54, 7.74, 7.74, 7.74, 7.74, 7.54, 7.6, 7.86, 7.92, 7.76, 8.05, 8.35, 8.35, 8.9, 9.13, 9.15, 8.38, 7.6, 7.13, 6.78, 6.4, 8.18, 0.0, -14.3, -14.3, -9.8, -7.69, -8.05, -8.85, -10.41, -10.73, -11.18, -9.83, -9.83, -9.83, -9.83, -10.28, -9.2, -9.2, -9.2, -9.2, -10.18, -7.27, -0.0, 10.28, 4.2, 3.53, 5.2, 7.51, 5.6, 6.21, 8.53, 8.53, 10.41, 11.87, 15.65, 19.22, 21.46, -0.0, -6.88, -2.57, -0.0, -2.79, -2.34, -0.0, 6.47, 8.4, 11.9, 15.01, 15.74, 13.96, 5.8, 9.2, 9.58, 13.48, 15.2, 16.91, 16.99, 16.99, 12.01, 9.92, 12.35, 13.13, 14.7, 15.69, 17.19, 17.02, 15.59, 16.54, 14.3, 11.18, 10.6, 6.94, 6.44, 9.17, 9.17, 5.8, 7.54, 7.54, 7.74, 7.74, 7.74, 7.93, 7.74, 7.8, 8.36, 8.41, 8.47, 8.05, 8.35, 8.84, 8.58, 8.78, 8.87, 9.13, 8.66, 8.56, 7.63, 8.51, 8.94, 0.0, -14.3, -13.86, -13.15, -11.53, -11.16, -11.16, -11.87, -10.28, -11.18, -7.27, -7.27, -9.2, -9.6, -9.83, -10.0, -7.87, -8.23, -9.6, -8.18, -6.95, -6.95, -4.4, -6.95, 10.28, 0.0, 5.0, 6.45, 7.9, 9.6, 9.39, -0.0, 10.73, 5.2, 12.03, 18.33, 4.23, -7.78, -9.17, -6.2, -4.52, -4.66, -0.0, -0.0, 15.19, 11.38, 12.07, 13.16, 6.79, -4.99, 12.52, 9.48, 16.22, 17.43, -0.0, 16.99, 16.99, 12.33, 9.42, 12.02, 11.99, 11.6, 13.29, 13.59, 15.27, 15.78, 16.54, 16.99, 13.41, 11.28, 11.2, 11.99, 11.6, 0.0, 0.0, 7.54, 7.54, 7.74, 7.74, 7.74, 7.93, 7.74, 8.0, 8.09, 8.14, 8.19, 8.24, 8.53, 8.58, 9.02, 9.42, 9.44, 8.87, 8.74, 9.02, 8.45, 8.49, 9.13, 6.6, -10.43, -14.75, -13.15, -11.53, -11.16, -11.16, -12.72, -12.07, -10.28, -10.73, 10.28, 0.0, -7.27, -9.75, -8.58, -8.82, -7.51, -7.81, -8.55, -8.18, -6.95, -6.64, -6.95, -7.27, -7.27, -10.28, 11.18, 11.62, -0.0, -0.0, -0.0, 9.83, 7.27, 11.03, 13.99, 4.95, -3.82, -10.4, -10.4, -10.8, -8.53, 12.96, 0.0, 15.2, 8.93, 11.8, 12.87, -0.0, -18.78, 0.0, 0.0, -0.0, -0.0, -0.0, -18.33, -18.33, 0.0, 8.2, 14.13, 14.31, 11.71, 10.6, 11.5, 12.71, 12.96, 13.86, 15.65, 12.04, 12.58, 13.15, 12.14, 10.8, 0.0, 0.0, 7.54, 7.54, 7.74, 7.74, 7.74, 7.93, 7.93, 8.25, 8.3, 8.36, 8.19, 8.47, 8.53, 8.28, 8.46, 9.42, 9.44, 9.16, 8.83, 8.38, 8.73, 8.66, 8.97, 8.87, 0.0, -14.3, -14.75, -13.19, -10.43, -11.9, -11.99, -12.58, -11.18, -11.18, 8.94, -9.39, -9.54, -9.96, -8.23, -7.87, -8.8, -7.44, -9.2, -6.32, -8.18, -8.18, -8.55, -9.75, -7.27, -7.27, -9.2, -7.59, -7.9, 10.73, 10.73, 10.28, 10.28, 9.6, 5.4, -0.0, -8.85, -10.0, -10.18, -9.6, -7.59, -7.27, 11.62, 11.62, 13.86, 15.59, 21.9, -12.96, -10.73, -9.4, -17.88, -8.4, -3.77, -0.0, -0.0, 18.78, 17.88, 17.43, 15.19, 14.75, 14.3, 11.62, 10.8, 12.96, 13.01, 13.15, 14.4, 12.72, 11.62, 12.04, 12.71, 11.45, 0.0, 0.0, 7.54, 7.54, 7.74, 7.74, 7.74, 7.93, 7.93, 8.25, 8.3, 8.83, 8.88, 8.93, 8.53, 8.72, 8.72, 9.14, 9.5, 9.44, 9.09, 8.49, 8.82, 9.1, 9.06, 9.48, 10.47, 13.57, 10.75, 15.2, -13.59, -13.59, -13.99, -13.28, -12.39, -11.06, -10.18, -10.08, -9.46, -10.14, -9.64, -9.54, -9.33, -9.33, -9.33, -9.75, -9.75, -9.75, -10.18, -9.75, -9.75, -9.2, -9.2, -7.27, -7.27, -0.0, -0.0, -0.0, 7.27, 9.6, 11.18, 11.18, -12.07, -10.4, -10.18, -8.93, -7.59, -6.95, -4.2, 0.0, 5.4, 9.39, 0.0, -11.8, -11.8, -12.87, -17.43, -10.19, -3.51, -0.0, 8.8, 13.28, 14.51, 15.99, 17.88, 11.99, 8.85, 0.0, 7.19, 12.3, 10.73, 11.9, 12.79, 12.3, 11.03, 10.35, 12.04, 11.6, 5.6, 5.6, 7.54, 7.54, 7.54, 7.54, 7.74, 7.74, 7.93, 8.25, 8.52, 8.78, 8.6, 8.88, 8.93, 8.72, 8.72, 9.11, 8.86, 9.14, 8.81, 8.85, 9.83, 10.81, 9.4, 8.73, 10.01, 11.53, 10.37, 9.8, -13.41, -13.44, -13.32, -12.66, -11.99, -11.64, -10.6, -10.01, -9.89, -10.7, -11.18, -10.73, -9.83, -10.28, -11.18, -11.18, -11.62, -10.73, -10.18, -9.75, -9.75, -9.2, -9.2, -4.6, -4.6, -4.6, -0.0, -0.0, 7.27, 11.18, 12.07, 11.62, -11.62, -10.4, -7.9, -5.46, -5.9, -6.64, -2.97, 10.28, 8.38, 12.79, 17.53, 20.12, 23.25, 24.59, 16.99, -0.0, -0.0, 11.7, 15.19, 16.19, 16.99, 17.43, 7.2, 0.0, 3.25, 2.63, 4.24, 5.8, 9.48, 8.73, 10.99, 11.64, 10.8, 9.08, 11.88, 11.44, 9.8, 9.8, 7.8, 7.8, 7.8, 7.8, 8.0, 7.74, 8.25, 8.25, 8.52, 8.78, 8.83, 8.88, 8.93, 8.97, 9.39, 8.86, 8.86, 8.22, 7.38, 7.36, 10.12, 11.11, 10.34, 8.51, 6.87, 7.19, 5.8, 2.63, -4.38, -12.96, -12.39, -12.22, -11.56, -11.34, -11.11, -10.25, -10.49, -10.6, -10.69, -10.24, -10.68, -10.68, -11.09, -11.06, -11.18, -11.62, -9.75, -9.75, -9.75, -9.33, -8.8, -7.27, -7.59, -5.0, -0.0, -0.0, 7.9, 10.73, 7.59, 11.62, -11.18, -9.6, -7.59, -5.95, -5.7, -5.7, -4.6, 10.0, 12.07, 13.34, 16.12, 19.15, 23.71, 26.34, 20.87, 14.79, 9.66, 9.66, 16.31, 16.99, 15.34, 15.69, 4.81, 0.0, 0.0, 2.2, 4.24, 6.67, 7.54, 4.93, 5.28, 9.48, 10.55, 8.1, 8.66, 10.75, 8.85, 8.85, 7.8, 7.8, 7.8, 7.8, 7.8, 7.8, 8.25, 8.25, 8.52, 9.01, 8.83, 8.88, 8.64, 9.09, 9.66, 9.77, 9.14, 7.95, 6.5, 7.03, 8.58, 10.01, 10.3, 9.89, 8.4, 6.85, 4.38, 0.0, -2.93, -11.28, -11.62, -11.53, -11.35, -11.21, -11.28, -10.84, -10.89, -10.6, -10.58, -11.0, -11.0, -10.96, -10.91, -11.71, -11.46, -12.07, -9.83, -9.75, -9.75, -9.75, -9.33, -8.55, -7.59, -5.0, -3.39, -0.0, -0.0, -0.0, 0.0, -7.9, -11.18, -7.9, -7.59, -9.3, -9.2, -9.6, -7.59, 5.4, 10.37, 11.09, 12.65, 16.17, 22.48, 25.03, 19.15, 13.39, 9.37, 9.6, 9.92, 11.87, 13.42, 13.99, 10.43, 0.0, 0.0, 4.24, 4.24, 4.24, 9.48, 6.21, 3.44, 6.0, 9.16, 7.44, 6.2, 6.6, 5.48, 5.48, 7.6, 7.8, 7.8, 7.8, 7.8, 8.3, 8.3, 8.52, 8.52, 8.78, 8.83, 9.04, 9.07, 9.35, 9.35, 10.05, 9.49, 8.46, 7.8, 7.88, 8.64, 8.38, 8.38, 8.69, 8.46, 7.93, 5.81, 0.0, -2.37, -8.53, -12.07, -11.62, -11.53, -11.4, -11.44, -11.0, -11.46, -11.46, -10.84, -10.78, -10.7, -10.7, -10.6, -11.3, -10.75, -10.58, -10.18, -9.33, -9.75, -9.75, -9.75, -8.93, -7.59, -7.9, -3.39, -3.53, -2.82, -6.94, -11.62, -7.59, -10.28, -5.95, -5.0, -7.9, -10.0, -10.0, -8.22, -0.0, 4.1, 2.89, 7.0, 14.22, 20.86, 23.21, 4.4, 5.29, 7.6, 8.78, 8.0, 5.98, 8.05, 9.92, 11.38, 10.75, 14.3, 13.41, 13.41, 0.0, 10.43, 9.42, 6.7, 6.65, 7.93, 7.36, 4.52, 2.35, 0.0, 0.0, 7.6, 7.6, 7.6, 7.8, 8.3, 8.3, 8.3, 8.3, 8.78, 8.78, 8.83, 9.04, 9.32, 9.07, 9.75, 9.48, 9.77, 9.12, 8.72, 8.72, 9.02, 8.38, 7.44, 7.19, 7.6, 7.49, 6.64, 1.53, -2.13, -5.6, -10.8, -11.4, -11.62, -11.55, -11.57, -11.4, -11.44, -11.44, -11.21, -11.21, -11.13, -10.62, -10.62, -10.4, -10.09, -10.27, -10.18, -8.91, -8.91, -9.75, -9.75, -8.93, -8.93, -6.2, -5.95, -4.8, -5.75, -5.8, -0.0, 9.39, -0.0, -0.0, -0.0, -3.68, -5.0, -5.0, -0.0, -0.0, -0.0, -0.0, -0.0, 17.88, 25.02, -9.8, -2.54, 1.68, 4.55, 5.79, 6.81, 4.86, 1.72, 0.0, 0.0, 15.65, 14.75, 13.86, 13.86, 0.0, 8.43, 12.16, 9.96, 7.44, 7.36, 6.4, 0.0, -4.52, -6.4, -6.4, 7.6, 7.6, 8.09, 8.09, 8.3, 8.3, 8.3, 8.3, 8.78, 8.78, 8.56, 9.04, 9.04, 9.73, 9.47, 9.48, 9.49, 9.12, 9.12, 9.39, 9.42, 9.06, 8.42, 7.04, 7.04, 7.11, 6.36, 3.98, 0.0, -4.81, -8.85, -10.8, -11.46, -11.18, -11.11, -10.96, -10.96, -10.7, -11.13, -11.13, -11.03, -10.62, -10.4, -9.86, -9.46, -9.7, -11.2, -9.3, -7.59, -7.9, -8.22, -9.3, -8.93, -8.93, -7.27, -7.27, -6.17, -7.24, -4.1, 3.68, 7.44, 2.97, -0.0, -0.0, -0.0, -0.0, -0.0, -0.0, -0.0, -0.0, 0.0, 16.06, 23.19, -28.16, -16.54, 0.0, 3.68, 4.1, 5.48, 4.81, 1.72, 0.0, -14.75, -14.3, 14.75, 14.75, 0.0, 0.0, 6.8, 16.09, 11.09, 10.73, 7.69, 0.0, -14.3, -13.57, -13.15, -13.15, 7.6, 7.6, 8.09, 8.09, 8.09, 8.09, 8.3, 8.3, 8.78, 8.78, 9.0, 9.04, 9.45, 9.45, 9.73, 9.47, 9.48, 9.12, 9.12, 9.39, 9.77, 9.73, 8.96, 7.99, 7.29, 6.87, 6.31, 5.16, 1.48, 0.0, -3.14, -7.19, -11.2, -11.46, -11.18, -10.66, -10.91, -10.6, -10.6, -11.03, -11.03, -10.4, -9.7, -9.09, -9.09, -8.73, -10.09, -8.38, -6.14, -5.06, -5.52, -8.85, -8.93, -8.93, -7.27, -7.27, -8.23, -7.87, -6.45, -0.0, 7.9, 5.21, -0.0, -0.0, -0.0, -0.0, -0.0, -0.0, -0.0, 8.22, 8.38, 12.52, 21.06, 27.72, 27.72, 20.56, 12.64, 5.81, 6.4, 4.71, 3.36, 0.0, -13.41, -13.41, -14.75, -10.43, 0.0, 0.0, 15.2, -0.0, -0.0, 13.19, 12.79, 14.75, -13.41, -13.86, -13.44, -13.44, 7.4, 7.4, 7.88, 8.09, 8.09, 8.09, 8.09, 8.56, 8.78, 8.78, 9.0, 9.28, 9.45, 9.45, 9.45, 9.73, 9.48, 9.48, 9.77, 9.77, 9.77, 10.08, 9.33, 8.51, 7.85, 7.11, 6.67, 5.43, 3.73, 0.0, 0.0, -3.14, -6.94, -10.8, -11.62, -11.18, -10.41, -10.41, -10.46, -10.46, -10.0, -10.09, -9.7, -8.59, -8.24, -8.24, -8.93, -7.27, -5.46, -4.4, -3.07, -3.53, -6.94, -8.53, -7.9, -7.59, -8.23, -8.8, -8.55, -5.2, 3.82, 5.4, -0.0, -0.0, -0.0, -0.0, -0.0, -0.0, -0.0, 12.52, 6.7, 12.27, 16.39, 24.14, 27.19, 25.26, 20.78, 14.3, 4.32, 4.32, 5.28, 2.72, -15.2, -12.87, -13.88, -15.65, 15.2, 14.75, -10.43, -10.75, -0.0, 16.54, 0.0, 15.65, -13.86, -14.3, -13.86, -13.86, 7.88, 7.88, 7.88, 8.09, 8.09, 8.09, 8.09, 8.56, 8.56, 8.56, 9.0, 9.0, 9.45, 9.45, 9.45, 9.45, 9.47, 9.48, 9.48, 9.48, 9.77, 9.49, 9.42, 9.23, 8.36, 7.34, 6.57, 5.8, 5.36, 3.14, 0.0, 0.0, 0.0, 0.0, -3.82, -10.4, -11.62, -10.96, -9.96, -8.82, -8.73, -9.08, -7.26, -7.59, -6.42, -6.98, -6.98, -6.42, -5.46, -4.4, -2.95, -1.58, -2.82, -5.1, -7.9, -8.93, -9.6, -9.2, -9.11, -9.2, -3.82, -0.0, 2.71, -0.0, -0.0, -0.0, -0.0, 12.96, 12.96, 5.8, 7.19, 11.16, 12.9, 16.48, 20.05, 25.87, 23.85, 19.4, 3.65, 3.65, 5.98, 3.14, -14.3, -12.3, -13.59, -13.99, 15.65, -11.06, -6.8, -13.19, -15.2, 16.54, 17.43, 16.54, 15.2, 14.3, 14.3, 14.3, 7.88, 7.88, 7.88, 8.09, 8.09, 7.84, 7.84, 8.3, 8.56, 8.56, 9.0, 9.0, 9.7, 9.7, 10.1, 9.45, 9.73, 9.47, 9.75, 9.75, 9.48, 9.49, 9.42, 9.06, 8.51, 8.1, 7.34, 6.9, 6.21, 5.18, 4.39, 3.82, 2.37, 0.0, 0.0, -5.2, -11.62, -11.18, -9.3, -8.58, -7.9, -6.97, -5.75, -3.25, -1.93, -2.1, -2.02, -5.29, -3.11, -2.82, -1.58, -1.52, -0.0, -2.49, -5.32, -8.22, -10.0, -10.41, -10.08, -9.55, -9.3, -3.53, -0.0, -0.0, -0.0, -0.0, -0.0, 0.0, 0.0, 5.8, 11.9, 12.79, 11.72, 11.09, 13.2, 18.84, 22.69, 16.48, 2.72, 3.82, 5.75, 6.45, -9.48, -12.14, -12.14, -13.44, -12.27, -11.06, -8.68, -10.43, -14.75, 15.65, 16.54, 16.99, 0.0, 11.06, 10.75, 10.75, 7.88, 7.88, 7.88, 7.88, 7.84, 7.84, 8.3, 8.3, 8.56, 8.56, 9.0, 9.0, 9.7, 10.1, 10.1, 9.45, 9.73, 9.73, 9.84, 10.13, 9.48, 9.77, 9.12, 8.75, 8.38, 7.99, 7.6, 7.44, 6.77, 6.31, 5.4, 4.75, 3.82, 2.37, 2.82, 0.0, 0.0, -11.18, -7.9, -7.59, -6.2, -5.0, -4.15, -0.0, -0.0, -0.0, -0.0, -0.0, -0.0, -1.45, -0.0, -0.0, -0.0, -0.0, -1.52, -5.95, -10.04, -10.4, -9.96, -10.6, -10.0, -7.9, -8.53, -5.6, -2.93, -0.0, -0.0, 12.52, 0.0, 0.0, 9.8, 14.64, 13.37, 10.99, 8.58, 11.0, 13.14, 3.16, 0.0, 6.31, 8.53, 6.69, 8.85, 12.07, -11.6, -11.16, -10.73, -13.7, -14.42, -13.59, -14.75, 15.2, 15.65, 0.0, 0.0, 12.01, 14.79, 14.79, 7.88, 7.88, 7.88, 7.88, 7.84, 7.84, 8.3, 8.3, 8.56, 8.56, 8.56, 9.0, 9.42, 10.1, 10.1, 9.45, 9.73, 9.73, 10.11, 9.84, 10.13, 9.77, 9.12, 8.75, 8.38, 8.42, 8.05, 7.67, 7.28, 7.51, 6.72, 5.86, 5.99, 5.2, 4.32, 6.45, 5.2, 11.18, 11.18, -0.0, -0.0, -2.6, -2.19, -0.0, -0.0, -0.0, -0.0, 1.45, 1.45, 1.84, 1.84, 1.45, -0.0, -0.0, -0.0, -1.52, -6.3, -9.48, -11.03, -10.6, -10.52, -11.18, -12.07, -11.03, -5.4, -2.45, -0.0, -0.0, 11.18, 0.0, 7.59, 13.15, 16.09, 16.95, 13.91, 13.59, 13.07, 2.87, 0.0, 9.0, 14.86, 8.85, 9.46, 12.14, 11.62, -0.0, -11.09, -14.03, -14.75, -14.75, -13.99, -15.65, 15.65, 15.65, 11.38, 12.33, 17.43, 17.43, 7.88, 7.88, 7.88, 7.88, 7.88, 8.09, 8.56, 8.56, 8.33, 8.33, 8.56, 9.0, 9.42, 10.1, 10.1, 10.11, 9.47, 10.11, 10.11, 10.11, 10.13, 9.77, 9.42, 8.75, 8.78, 8.15, 7.78, 8.15, 8.09, 8.01, 7.93, 7.82, 7.24, 7.02, 7.26, 6.71, 9.3, 10.6, 10.73, 7.59, 4.8, -0.0, -0.0, -0.0, -0.0, -0.0, 2.93, 2.95, 2.82, 3.53, 3.39, 3.25, 3.25, 1.52, 1.52, -0.0, -1.45, -7.56, -9.96, -11.06, -11.18, -11.28, -12.07, -9.67, -8.53, -6.97, -5.2, -0.0, 11.45, 9.83, 8.49, 11.18, 15.49, 22.62, 20.98, 15.99, 13.76, 12.65, 9.17, 8.8, 13.14, 13.59, 11.6, 13.28, 13.86, 13.88, -0.0, -13.88, -14.11, -13.7, -13.19, -12.27, -6.8, 11.06, 15.65, 16.09, 16.12, 16.12, 7.66, 7.66, 7.88, 7.88, 7.88, 8.33, 8.33, 8.33, 8.33, 8.33, 8.77, 9.0, 9.0, 10.1, 10.1, 10.11, 9.47, 9.84, 10.11, 10.13, 9.84, 9.49, 8.85, 8.86, 8.51, 8.53, 8.17, 7.54, 8.61, 8.22, 8.85, 8.85, 8.85, 8.53, 8.53, 9.67, 9.58, 10.96, 10.73, 10.73, 8.55, 5.95, 4.8, 3.98, 3.39, 3.53, 5.0, 4.8, 4.8, 5.0, 4.8, 3.25, 3.39, 3.39, 2.82, 1.45, 1.58, -3.07, -8.73, -10.08, -11.84, -11.28, -11.28, -8.94, -9.3, -7.9, -7.27, -5.2, 12.52, 12.07, 9.75, 10.28, 9.8, 18.78, 29.02, 19.53, 10.73, 7.9, 13.15, 17.35, 17.02, 17.35, 15.65, 14.22, 14.68, 15.11, 15.65, 14.75, -12.79, -11.09, -11.09, -11.44, -12.27, -0.0, 10.75, 13.02, 11.38, 11.38, 7.66, 7.66, 7.66, 7.88, 7.88, 8.33, 8.33, 8.33, 8.33, 8.77, 8.77, 8.77, 9.0, 9.7, 10.1, 10.11, 9.84, 10.13, 10.13, 10.13, 9.84, 9.49, 9.14, 8.86, 8.87, 8.53, 7.89, 8.2, 8.19, 9.17, 8.22, 8.93, 8.97, 9.89, 10.04, 9.86, 10.68, 10.75, 11.18, 10.73, 10.08, 9.6, 7.59, 6.7, 6.98, 5.95, 5.95, 5.7, 5.95, 6.7, 5.29, 5.29, 3.53, 3.39, 3.25, 3.39, 3.39, -0.0, -3.25, -8.93, -10.62, -10.73, -8.22, -7.59, -7.9, -7.9, -8.58, -8.55, -8.22, -0.0, 5.4, -0.0, 0.0, 13.1, 27.78, 23.66, 13.7, 0.0, 12.72, 14.11, 15.97, 16.99, 16.54, 16.54, 16.49, 16.48, 16.09, 15.2, -0.0, -7.44, -9.17, -9.48, -11.53, -4.52, -0.0, 8.43, 6.8, 6.8, 7.66, 7.66, 7.66, 7.66, 7.88, 8.33, 8.33, 8.33, 8.33, 8.77, 8.77, 8.77, 8.77, 9.7, 10.11, 10.11, 10.13, 10.13, 10.13, 10.13, 9.49, 9.49, 9.5, 8.86, 8.87, 8.87, 8.54, 8.54, 8.85, 8.87, 8.93, 9.0, 9.4, 10.18, 10.6, 10.4, 11.03, 11.35, 11.09, 10.73, 10.58, 9.75, 9.2, 7.59, 7.59, 6.58, 7.27, 7.27, 7.59, 6.7, 6.7, 5.75, 5.52, 3.82, 3.25, 3.25, 3.25, 3.11, -0.0, -3.39, -10.41, -7.9, -7.9, -6.2, -7.27, -8.58, -8.58, -9.6, -10.4, -8.85, -0.0, -0.0, 12.52, 12.45, 21.44, 25.61, 18.78, 14.38, 12.11, 13.2, 15.68, 16.54, 16.54, 16.99, 16.54, 16.09, 16.01, 14.75, 10.12, -0.0, -3.96, -6.94, -8.85, -6.0, -0.0, 4.66, -0.0, -0.0, 7.66, 7.66, 7.66, 7.66, 7.66, 8.33, 8.33, 8.33, 8.77, 8.77, 8.77, 8.77, 8.77, 9.7, 9.45, 9.84, 10.13, 10.13, 9.84, 10.13, 9.49, 9.79, 9.5, 9.8, 9.5, 8.87, 8.87, 9.17, 9.48, 9.5, 9.21, 9.3, 9.67, 10.04, 10.4, 10.58, 10.92, 11.4, 11.11, 11.18, 10.65, 9.89, 9.45, 8.93, 7.9, 7.9, 7.56, 7.27, 8.03, 8.38, 6.7, 5.75, 5.52, 3.82, 3.98, 3.82, 3.11, 3.11, 3.11, -0.0, -5.72, -8.22, -8.93, -7.9, -7.9, -9.3, -8.93, -10.0, -9.3, -8.53, -3.96, -0.0, 14.3, 15.3, 18.87, 21.17, 20.44, 17.28, 15.56, 17.15, 17.31, 16.99, 15.57, 14.99, 15.65, 14.66, 13.99, 12.65, 9.48, 5.6, -0.0, -0.0, -5.6, -0.0, -0.0, -0.0, -0.0, -0.0, 7.7, 7.7, 7.66, 7.66, 8.11, 8.11, 8.33, 8.33, 8.77, 8.77, 8.77, 8.77, 9.04, 9.45, 9.73, 10.11, 10.13, 10.13, 10.13, 10.13, 9.79, 9.79, 9.8, 9.8, 9.8, 9.5, 9.48, 8.85, 9.15, 9.46, 9.84, 9.57, 9.9, 9.84, 10.0, 10.32, 10.5, 10.96, 11.12, 11.18, 10.66, 10.41, 9.63, 8.54, 8.54, 8.18, 8.18, 8.55, 8.03, 8.38, 7.59, 6.44, 5.29, 3.98, 3.82, 5.06, 5.06, 3.11, 3.11, 1.45, -2.49, -5.72, -8.93, -8.55, -8.55, -9.3, -8.55, -8.93, -9.3, -9.3, -5.8, -0.0, 13.99, 16.82, 19.22, 17.4, 17.43, 19.37, 21.17, 19.14, 19.22, 16.09, 12.96, 12.96, 13.01, 12.04, 11.12, 9.77, 9.77, 10.37, 7.19, -0.0, -0.0, -0.0, -0.0, -0.0, -0.0, -0.0, 7.7, 7.7, 7.92, 7.92, 8.11, 8.11, 8.33, 8.77, 8.77, 8.77, 9.04, 9.04, 8.79, 9.47, 9.47, 9.84, 10.13, 10.13, 10.13, 10.13, 9.79, 10.1, 9.8, 9.8, 9.8, 9.8, 9.48, 9.46, 9.42, 9.12, 9.42, 9.49, 10.15, 9.9, 10.15, 10.32, 10.6, 10.78, 11.13, 11.18, 10.66, 10.47, 9.63, 10.38, 8.15, 9.04, 9.45, 9.2, 8.82, 8.38, 7.59, 7.59, 5.29, 3.98, 3.65, 5.06, 5.06, 4.2, 4.4, 3.11, -0.0, -3.7, -8.55, -8.18, -8.93, -7.9, -5.46, -5.7, -5.95, -7.59, -8.22, -4.1, 8.68, 17.81, 20.88, 17.72, 13.15, 16.33, 21.82, 21.92, 18.52, 15.65, 13.41, 12.07, 11.21, 11.12, 11.16, 10.79, 10.12, 11.12, 9.17, -0.0, -9.48, -13.41, 12.96, 12.96, 13.41, -0.0, 7.7, 7.7, 7.7, 8.37, 8.37, 8.37, 8.37, 8.79, 9.04, 9.04, 8.79, 8.79, 9.07, 9.07, 9.47, 9.47, 10.13, 10.13, 10.13, 10.13, 10.1, 9.8, 9.44, 10.11, 9.8, 9.8, 10.09, 10.06, 9.76, 9.37, 9.66, 9.73, 10.04, 10.09, 10.4, 10.43, 10.68, 10.84, 11.14, 10.73, 10.73, 10.52, 9.75, 10.79, 9.21, 9.21, 9.89, 9.75, 8.82, 9.2, 7.27, 7.27, 5.29, 5.29, 5.06, 4.83, 4.83, 4.2, 4.2, 3.11, -0.0, -2.28, -4.8, -6.64, -5.46, -5.95, -5.95, -5.7, -3.39, -3.53, -5.0, -5.8, 6.6, 17.15, 24.01, 22.76, 14.47, 12.82, 16.68, 17.99, 16.12, 14.99, 15.2, 14.6, 13.15, 11.5, 12.03, 12.03, 11.64, 11.64, 11.5, 9.48, -9.48, -13.41, -13.41, -12.96, -13.41, 13.41, 7.7, 7.7, 7.7, 8.14, 8.37, 8.37, 8.37, 8.79, 8.79, 8.79, 8.79, 8.79, 9.07, 9.07, 9.2, 9.47, 10.13, 10.13, 10.13, 10.13, 10.1, 9.8, 10.11, 9.8, 10.12, 9.8, 10.09, 10.06, 10.01, 9.94, 9.66, 9.95, 10.24, 10.65, 10.53, 10.68, 10.75, 10.89, 11.14, 10.73, 10.73, 10.23, 10.04, 9.6, 11.03, 9.33, 10.05, 10.32, 9.2, 8.82, 7.68, 6.95, 6.64, 5.86, 4.83, 4.83, 5.59, 4.96, 5.21, 4.2, 1.39, -1.16, -2.99, -5.46, -5.7, -5.7, -5.46, -5.7, -5.95, -3.53, -5.0, -8.22, 13.86, 15.65, 18.84, 24.57, 23.21, 15.99, 11.9, 11.35, 11.99, 12.89, 13.41, 12.89, 11.92, 12.03, 13.07, 13.48, 13.57, 13.15, 12.98, 12.87, -0.0, -13.86, -13.41, -13.41, -12.96, -13.41, 7.7, 7.7, 7.7, 8.14, 8.14, 8.14, 8.37, 8.79, 8.79, 8.79, 8.79, 8.79, 9.07, 8.81, 9.2, 9.48, 9.48, 10.13, 10.13, 9.84, 9.8, 9.8, 9.8, 9.8, 9.8, 9.8, 10.06, 10.06, 10.01, 10.3, 10.01, 9.58, 9.86, 10.4, 10.53, 10.79, 11.18, 10.93, 11.05, 10.69, 10.73, 10.28, 10.28, 10.22, 9.77, 11.02, 9.75, 9.63, 9.04, 8.8, 8.4, 7.33, 7.33, 6.98, 6.32, 5.59, 5.31, 5.59, 5.59, 5.86, 2.97, -1.16, -2.6, -5.46, -5.46, -5.7, -5.46, -7.59, -5.7, -6.2, -5.2, -8.22, 12.96, 9.8, 15.65, 18.79, 28.22, 26.57, 13.86, 10.79, 10.43, 14.75, 13.15, 12.85, 12.45, 13.27, 13.96, 14.4, 14.4, 14.03, 14.03, 14.11, -0.0, -13.86, -13.41, -12.96, -12.96, -12.96, 7.7, 7.7, 7.7, 8.14, 8.14, 8.14, 8.37, 8.79, 8.79, 8.79, 8.79, 9.07, 8.81, 8.81, 9.09, 9.21, 9.21, 9.84, 9.84, 10.13, 10.13, 9.8, 9.8, 9.5, 9.48, 9.48, 9.72, 10.01, 10.01, 9.94, 10.01, 9.95, 10.13, 10.4, 10.53, 10.79, 11.23, 11.36, 11.05, 11.14, 10.69, 10.73, 10.28, 10.28, 10.73, 10.68, 10.08, 9.6, 8.79, 8.63, 8.63, 8.0, 8.0, 6.98, 6.63, 6.63, 5.03, 6.01, 6.32, 5.59, 2.97, -0.0, -2.06, -5.46, -5.46, -5.46, -5.7, -5.7, -5.7, -7.9, -8.22, -7.9, 12.96, 0.0, 10.43, 15.78, 21.9, 31.46, 27.17, 17.59, 15.62, 15.63, 16.24, 14.53, 12.96, 13.67, 13.77, 14.16, 14.75, 14.3, 14.3, 14.3, 13.86, -13.41, -12.96, -12.96, -12.96, -12.96, 7.48, 7.48, 7.7, 8.14, 8.14, 8.14, 8.37, 8.79, 9.07, 9.07, 8.81, 8.81, 8.81, 8.83, 8.83, 9.12, 9.49, 9.49, 10.13, 10.13, 10.13, 10.12, 9.5, 9.19, 9.48, 9.46, 9.46, 9.42, 9.71, 10.01, 9.95, 10.24, 10.13, 10.4, 10.53, 10.79, 11.23, 11.36, 11.49, 11.05, 11.14, 10.69, 10.73, 10.73, 10.73, 11.18, 10.68, 9.64, 9.16, 8.67, 8.6, 8.22, 8.0, 8.0, 6.63, 6.63, 6.28, 6.28, 6.01, 6.32, 4.6, -0.0, -1.94, -4.8, -5.46, -6.95, -5.7, -5.95, -7.27, -7.9, -7.9, -9.6, 11.62, 5.8, 7.44, 10.75, 17.13, 23.64, 29.92, 24.06, 19.47, 19.21, 17.23, 17.02, 14.15, 13.67, 14.16, 14.3, 14.3, 14.3, 13.86, 13.86, 13.86, -13.41, -12.96, -12.96, -12.96, -12.96, 7.48, 7.48, 7.73, 8.4, 8.4, 8.14, 8.81, 8.81, 8.81, 8.81, 8.81, 8.83, 8.83, 8.83, 8.85, 8.85, 9.22, 9.5, 9.84, 10.75, 10.43, 9.82, 10.12, 9.8, 9.48, 9.46, 9.76, 9.42, 9.71, 9.66, 9.95, 10.24, 10.13, 10.53, 10.79, 11.03, 11.23, 11.36, 11.36, 11.05, 11.05, 10.69, 10.69, 10.73, 10.73, 10.73, 10.73, 10.23, 9.77, 9.76, 9.11, 9.03, 8.48, 8.0, 8.0, 6.63, 6.63, 6.28, 6.28, 6.63, 6.01, 1.47, -0.99, -2.69, -5.95, -4.4, -5.46, -6.64, -7.27, -8.58, -8.22, -7.27, 11.18, 8.85, 11.16, 12.79, 15.93, 18.26, 22.12, 22.99, 22.73, 23.28, 22.99, 17.81, 16.21, 14.56, 14.18, 14.75, 14.75, 13.41, 14.3, 8.85, 12.96, 12.96, 12.96, -12.52, -12.52, -12.52, 7.73, 7.73, 7.73, 8.16, 8.4, 8.16, 8.16, 8.56, 8.56, 8.83, 8.83, 8.83, 8.83, 8.85, 8.85, 8.85, 9.5, 9.5, 9.5, 9.84, 10.75, 10.43, 10.12, 9.8, 9.48, 9.46, 9.76, 9.71, 10.01, 9.95, 10.24, 10.52, 10.4, 10.53, 10.79, 11.03, 11.23, 11.18, 11.36, 11.51, 11.05, 11.14, 11.14, 10.69, 10.73, 10.73, 10.73, 10.28, 10.28, 9.77, 9.76, 9.03, 9.03, 8.48, 8.0, 7.6, 7.28, 6.28, 6.28, 6.28, 6.01, 1.4, -0.99, -2.7, -3.52, -7.27, -6.95, -6.32, -7.87, -8.23, -8.55, -9.6, -11.62, 12.52, 13.41, 13.86, 15.2, 15.99, 16.96, 15.55, 18.72, 26.08, 26.3, 21.52, 18.68, 15.11, 16.22, 16.09, 14.3, -9.8, -0.0, -0.0, -0.0, -12.52, -12.52, -12.07, -12.07, -12.07, 7.73, 7.73, 7.73, 8.16, 8.16, 8.16, 8.43, 8.83, 8.83, 8.83, 8.83, 8.83, 8.85, 8.85, 8.85, 8.85, 9.5, 9.5, 9.5, 10.13, 10.75, 10.43, 10.12, 10.09, 10.06, 9.46, 9.76, 9.71, 10.01, 9.95, 10.24, 10.52, 10.4, 10.53, 10.79, 11.03, 11.03, 11.23, 11.36, 11.06, 11.06, 11.15, 11.14, 11.14, 10.69, 10.73, 10.73, 10.28, 10.28, 10.28, 9.77, 9.32, 9.29, 8.6, 8.06, 7.6, 7.6, 6.9, 6.28, 6.28, 6.28, 3.15, -0.0, -2.35, -2.83, -3.11, -4.2, -6.64, -8.18, -8.8, -8.55, -10.6, -10.4, -0.0, -0.0, 9.48, 13.57, 13.97, 13.65, 11.7, 13.28, 22.91, 26.71, 23.34, 19.93, 16.39, 15.65, -14.75, -13.44, -9.17, -5.6, -6.94, -11.45, -12.07, -12.07, -12.07, -12.07, -12.07, 7.73, 7.73, 7.73, 7.5, 8.43, 8.43, 8.43, 8.83, 8.83, 8.83, 8.57, 8.85, 8.85, 8.85, 8.85, 9.22, 9.49, 9.49, 9.84, 10.13, 9.84, 10.12, 9.8, 9.77, 9.72, 10.01, 9.71, 9.71, 9.66, 9.95, 10.24, 10.13, 10.4, 10.53, 10.53, 10.79, 11.03, 10.8, 10.96, 10.96, 11.06, 11.06, 11.15, 11.14, 11.14, 10.73, 10.73, 10.28, 10.28, 10.28, 9.83, 9.83, 9.32, 8.85, 8.48, 8.06, 7.6, 7.2, 6.7, 6.7, 5.93, 4.14, -0.0, -2.57, -3.63, -4.6, -3.11, -2.97, -6.95, -8.18, -8.55, -8.93, -8.22, -5.4, -0.0, -0.0, 9.8, 8.58, 9.44, 8.29, 12.45, 17.13, 22.14, 22.23, 21.46, 16.01, -15.2, -12.96, -10.79, -7.51, -7.51, -8.53, -11.28, -11.18, -11.18, -10.73, -10.73, -10.73, 7.5, 7.5, 7.5, 7.76, 8.18, 8.18, 8.18, 8.18, 8.57, 8.85, 8.85, 8.85, 8.85, 8.85, 9.12, 9.49, 9.49, 9.49, 9.84, 9.5, 9.21, 9.19, 9.48, 9.46, 9.72, 9.66, 9.94, 9.66, 9.66, 9.95, 10.24, 10.13, 10.4, 10.65, 10.53, 10.79, 10.6, 10.8, 10.96, 10.96, 11.08, 11.08, 11.15, 11.15, 11.15, 11.14, 10.7, 10.73, 10.28, 10.28, 9.83, 9.83, 9.39, 8.87, 8.85, 8.06, 8.06, 7.2, 7.2, 6.7, 6.28, 5.37, -0.0, -2.44, -4.12, -5.36, -4.0, -2.28, -2.28, -2.39, -5.46, -8.55, -9.3, -5.4, -0.0, -0.0, 4.24, 3.25, 4.52, 8.57, 11.06, 13.06, 14.22, 19.01, 23.5, 19.2, -10.41, -7.27, -0.0, -3.04, -5.4, -6.97, -10.18, -10.28, -9.83, -9.39, -9.39, -9.39, 7.5, 7.76, 7.76, 7.76, 8.18, 8.18, 8.18, 8.46, 8.46, 8.58, 8.58, 8.85, 8.85, 9.49, 9.49, 9.77, 9.49, 9.84, 9.5, 9.21, 9.21, 9.17, 9.17, 9.46, 9.42, 9.42, 9.59, 9.86, 10.13, 9.95, 9.86, 10.13, 10.4, 10.24, 10.46, 10.46, 10.6, 10.8, 10.8, 10.96, 10.96, 11.08, 11.08, 11.06, 11.15, 11.15, 10.7, 10.7, 10.25, 10.28, 10.28, 9.83, 9.39, 8.94, 8.85, 8.41, 8.06, 7.63, 7.2, 6.7, 6.7, 5.93, 1.25, -1.75, -3.91, -5.36, -4.0, -2.28, -0.0, -0.0, -0.0, -0.0, -5.46, -7.9, -5.4, -0.0, -0.0, -0.0, 3.36, 8.85, 10.43, 10.43, 11.06, 15.84, 26.03, 17.81, -10.12, -5.95, -0.0, -0.0, -2.82, -3.68, -10.0, -10.73, -10.28, -9.83, -9.83, -9.83, 7.76, 7.53, 7.53, 7.53, 7.8, 8.2, 8.2, 8.2, 8.2, 8.58, 8.85, 8.85, 9.49, 9.77, 9.77, 9.49, 9.49, 9.5, 9.21, 8.87, 8.87, 9.17, 9.17, 8.85, 9.42, 9.37, 9.37, 9.66, 9.95, 9.86, 10.13, 10.13, 10.0, 10.24, 10.46, 10.46, 10.67, 10.84, 10.84, 10.8, 10.96, 10.96, 10.96, 11.08, 11.06, 11.06, 10.62, 10.7, 10.7, 10.25, 10.25, 9.83, 9.83, 8.94, 8.94, 8.41, 8.17, 7.63, 7.2, 7.2, 6.7, 5.93, 2.82, -0.94, -3.69, -4.65, -6.64, -4.2, -2.28, -0.0, -0.0, 2.49, -0.0, -0.0, -7.9, -5.2, -0.0, 4.1, 4.24, 7.69, 10.12, 10.12, 11.17, 16.27, 27.21, 17.11, -3.16, -3.82, -10.73, -10.73, -10.0, -0.0, 11.62, -11.18, -10.73, -9.83, -9.83, -9.83, 7.1, 7.1, 7.55, 7.55, 7.55, 7.95, 8.2, 8.49, 8.49, 9.14, 9.12, 9.49, 9.77, 9.49, 9.49, 9.49, 9.5, 9.5, 8.87, 8.87, 9.17, 8.87, 8.85, 8.85, 8.82, 9.12, 9.12, 9.3, 9.58, 9.86, 10.13, 10.0, 10.0, 10.24, 10.46, 10.46, 10.67, 10.67, 10.84, 10.8, 10.8, 10.96, 10.96, 10.96, 10.93, 11.06, 10.62, 10.62, 10.7, 10.25, 10.25, 9.8, 9.79, 8.94, 8.94, 8.41, 8.41, 8.06, 7.63, 7.2, 6.32, 6.32, 4.75, -0.0, -3.4, -5.37, -7.51, -8.4, -6.95, -2.97, -0.0, -0.0, 3.25, -0.0, -4.6, -0.0, -0.0, 3.96, 4.1, 9.17, 9.48, 11.09, 12.27, 27.27, 27.72, 8.8, -6.14, -3.14, -11.62, -9.2, -10.0, -7.9, 0.0, -11.62, -10.73, -10.28, -10.28, -10.28, 7.13, 7.13, 7.55, 7.55, 7.55, 7.83, 8.49, 8.49, 9.14, 9.12, 9.12, 9.49, 9.49, 9.49, 9.49, 9.5, 9.21, 8.59, 8.87, 9.17, 9.17, 8.87, 8.85, 8.82, 8.82, 8.78, 9.08, 9.08, 9.37, 9.86, 9.74, 9.74, 10.0, 10.24, 10.24, 10.46, 10.38, 10.6, 10.6, 10.8, 10.8, 10.96, 10.96, 10.96, 10.93, 10.93, 11.06, 10.6, 10.6, 10.16, 10.25, 9.8, 9.35, 8.94, 8.94, 8.49, 8.41, 8.41, 7.63, 7.2, 6.8, 5.93, 4.75, 1.49, -2.4, -5.37, -6.18, -6.99, -9.2, -8.55, -7.27, -7.27, -0.0, -0.0, -0.0, -0.0, -0.0, -0.0, 8.85, 8.85, 9.17, 9.8, 17.78, 26.17, 26.18, -0.0, -5.64, -4.81, -11.71, -11.03, -9.58, -6.2, 0.0, -5.0, -10.73, -10.28, -10.28, -10.28, 6.9, 6.9, 7.13, 7.83, 7.83, 8.08, 8.49, 8.75, 9.14, 8.85, 9.22, 9.49, 9.22, 9.5, 9.21, 8.87, 8.87, 8.87, 8.87, 9.17, 8.87, 8.87, 8.85, 8.82, 8.52, 8.52, 8.82, 8.82, 9.01, 9.3, 9.3, 9.58, 9.86, 9.86, 10.13, 10.38, 10.38, 10.6, 10.6, 10.8, 10.8, 10.8, 10.93, 10.93, 10.93, 10.93, 10.93, 10.45, 10.6, 10.6, 10.16, 10.14, 9.35, 9.34, 8.94, 8.49, 8.49, 8.41, 7.63, 7.63, 7.2, 6.52, 5.93, 4.56, -0.0, -4.46, -6.55, -7.2, -10.08, -10.41, -10.73, -10.73, -10.73, -7.27, -0.0, -4.4, -0.0, -0.0, 8.85, 11.2, 11.2, 11.16, 17.81, 23.07, 25.87, -0.0, -6.2, -4.8, -8.93, -10.96, -8.73, -5.2, 0.0, 0.0, -10.0, -9.83, -9.83, -9.83, 7.16, 7.16, 7.4, 7.83, 8.08, 8.49, 8.49, 8.86, 9.14, 9.14, 9.5, 9.5, 9.21, 9.21, 8.87, 8.87, 8.87, 8.87, 9.17, 8.87, 8.87, 8.85, 8.85, 8.82, 8.52, 8.52, 8.49, 8.49, 8.79, 8.79, 9.3, 9.58, 9.58, 9.86, 10.13, 10.13, 10.38, 10.38, 10.52, 10.52, 10.75, 10.75, 10.32, 10.49, 10.49, 10.49, 10.45, 10.45, 10.45, 10.6, 10.16, 10.16, 9.36, 9.35, 8.9, 8.94, 8.49, 8.49, 7.97, 7.63, 7.63, 7.2, 6.9, 5.69, 3.6, -1.58, -6.01, -7.37, -7.95, -10.52, -10.41, -10.18, -9.6, -4.6, -0.0, -0.0, -0.0, 11.18, 11.62, 12.07, 12.52, 14.3, 17.64, 20.6, 28.32, 24.59, -8.93, -5.2, -6.2, -11.18, -9.3, -5.2, 0.0, 0.0, 0.0, -10.28, -10.28, -10.28, 7.16, 7.16, 7.4, 7.83, 7.83, 8.22, 8.22, 8.59, 8.86, 8.86, 8.86, 8.87, 8.87, 8.87, 8.87, 8.87, 8.87, 9.17, 8.87, 8.87, 8.56, 8.85, 8.53, 8.5, 8.78, 8.19, 8.49, 8.49, 8.79, 8.79, 9.09, 9.4, 9.4, 9.32, 9.32, 9.6, 10.0, 10.27, 10.52, 10.52, 10.75, 10.32, 10.32, 10.32, 10.32, 10.45, 10.45, 10.45, 10.41, 10.41, 10.14, 9.7, 9.26, 9.35, 8.9, 8.94, 8.49, 8.49, 8.43, 7.97, 7.63, 7.63, 7.47, 6.44, 5.69, 2.06, -3.8, -6.63, -7.95, -10.08, -9.97, -10.18, -9.2, -4.4, -0.0, -0.0, -0.0, 10.28, 10.73, 11.62, 9.17, 11.53, 15.34, 19.22, 25.93, 24.79, -13.59, -6.8, -6.2, -5.0, -10.4, -8.22, -3.82, 0.0, 0.0, -7.9, -7.9, -7.9, 7.16, 7.16, 7.16, 7.57, 7.57, 7.96, 8.22, 8.87, 8.87, 8.87, 8.59, 8.87, 8.87, 8.87, 8.87, 9.17, 9.48, 9.17, 8.87, 8.56, 8.85, 8.53, 8.53, 8.5, 8.78, 8.19, 8.49, 8.49, 8.79, 8.44, 8.73, 8.73, 9.02, 9.02, 9.32, 9.32, 9.6, 10.0, 10.27, 10.52, 10.52, 10.1, 10.32, 10.32, 10.25, 10.25, 10.45, 10.45, 10.41, 10.41, 9.97, 9.7, 9.7, 9.36, 8.9, 8.9, 8.49, 8.49, 8.49, 8.49, 7.97, 7.94, 7.63, 7.89, 7.6, 6.01, 2.83, -4.96, -7.67, -9.97, -9.97, -9.75, -8.8, -6.64, -6.64, -0.0, 9.39, 9.39, 10.28, 0.0, 5.6, 9.48, 11.8, 16.91, 23.37, 26.65, 13.91, -11.06, -3.96, -0.0, 11.62, -10.4, -3.82, 0.0, 0.0, 0.0, 0.0, 0.0, 6.92, 6.92, 7.19, 7.59, 7.85, 8.23, 8.23, 8.23, 8.87, 8.87, 8.87, 8.87, 8.87, 9.17, 9.17, 9.17, 9.17, 9.17, 8.56, 8.85, 8.85, 8.53, 8.82, 8.5, 8.78, 8.45, 8.49, 8.49, 8.44, 8.44, 8.73, 8.73, 9.02, 9.02, 9.02, 9.32, 9.6, 9.45, 9.74, 9.86, 10.1, 10.1, 10.1, 10.25, 10.25, 10.25, 10.25, 10.41, 10.41, 10.41, 9.97, 9.7, 9.7, 9.24, 8.9, 8.9, 8.45, 8.49, 8.49, 8.49, 8.49, 8.41, 8.38, 8.33, 7.6, 7.6, 7.44, 4.0, -0.0, -6.32, -8.72, -10.6, -9.75, -9.39, -9.39, -9.39, 9.39, 9.83, 10.28, 11.62, 0.0, 4.24, 11.8, 15.49, 22.53, 27.34, 18.26, 0.0, -10.12, -0.0, 12.52, 12.07, 0.0, 0.0, 0.0, 0.0, 0.0, 0.0, 7.19, 7.19, 7.19, 7.59, 7.59, 7.59, 8.24, 8.24, 8.24, 8.58, 8.87, 9.17, 8.87, 9.17, 9.17, 9.17, 9.17, 9.17, 8.85, 8.85, 8.53, 8.82, 8.82, 8.5, 8.45, 8.73, 8.49, 8.49, 8.44, 8.44, 8.73, 8.73, 9.02, 9.02, 9.02, 9.32, 9.45, 9.45, 9.86, 9.86, 9.86, 10.1, 10.01, 10.01, 10.25, 10.25, 10.18, 10.18, 10.41, 10.41, 9.97, 9.68, 9.68, 9.24, 9.35, 8.9, 8.9, 8.45, 8.49, 8.49, 8.49, 8.49, 8.49, 8.38, 8.33, 8.24, 8.0, 8.0, 6.32, -0.0, -6.64, -10.0, -10.28, -10.73, -9.39, -9.83, -9.83, 9.83, 10.28, 10.73, 0.0, 7.19, 10.12, 14.38, 20.72, 27.65, 21.77, 15.61, 10.12, 13.86, 12.52, 8.85, 8.53, 5.6, 5.6, 5.4, 5.4, 5.4, 7.19, 7.19, 7.19, 7.33, 7.6, 7.6, 7.96, 8.54, 8.54, 8.87, 8.87, 8.87, 8.87, 9.17, 9.17, 9.17, 9.46, 8.85, 8.85, 8.85, 8.53, 8.82, 8.82, 8.5, 8.45, 8.73, 8.49, 8.49, 8.44, 8.44, 8.73, 8.73, 8.73, 9.02, 9.02, 9.32, 9.45, 9.45, 9.6, 9.6, 9.74, 9.74, 10.01, 10.01, 10.25, 10.18, 10.18, 10.18, 10.41, 9.97, 9.97, 9.68, 9.68, 9.24, 9.35, 8.9, 8.9, 8.9, 8.94, 8.49, 8.49, 8.49, 8.49, 8.49, 8.38, 8.33, 8.77, 8.67, 8.67, 6.32, -0.0, -4.2, -8.91, -11.62, -9.39, -9.83, -9.83, 9.83, 10.28, 10.73, 8.22, 7.19, 9.8, 12.81, 18.47, 25.03, 24.14, 18.78, 15.65, 14.75, 13.86, 12.72, 12.3, 11.2, 11.87, 11.87, 11.87, 11.87, 7.19, 7.19, 7.19, 7.33, 7.6, 7.6, 7.96, 8.54, 8.54, 8.87, 8.87, 8.87, 8.87, 9.17, 9.17, 9.17, 9.46, 8.85, 8.85, 8.85, 8.53, 8.82, 8.82, 8.5, 8.45, 8.73, 8.49, 8.49, 8.44, 8.44, 8.73, 8.73, 8.73, 9.02, 9.02, 9.32, 9.45, 9.45, 9.6, 9.6, 9.74, 9.74, 10.01, 10.01, 10.25, 10.18, 10.18, 10.18, 10.41, 9.97, 9.97, 9.68, 9.68, 9.24, 9.35, 8.9, 8.9, 8.9, 8.94, 8.49, 8.49, 8.49, 8.49, 8.49, 8.38, 8.33, 8.77, 8.67, 8.67, 6.32, -0.0, -4.2, -8.91, -11.62, -9.39, -9.83, 9.83, 9.83, 10.28, 10.73, 8.22, 6.94, 10.73, 12.42, 15.78, 20.12, 23.69, 20.95, 19.14, 15.99, 15.2, 14.3, 13.86, 13.41, 12.14, 11.71, 11.71, 11.71]}, {"header": {"dx": 0.06612293990616946, "dy": 0.0552356325346848, "nx": 98, "ny": 59, "la1": 35.046912555036876, "la2": 31.78801023549047, "lo1": -121.43107172385933, "lo2": -114.95102361305473, "refTime": "2026041613", "parameterCategory": 1, "parameterNumber": 3}, "data": [-16.26, -16.39, -16.53, -16.14, -15.76, -14.97, -14.58, -14.21, -13.59, -13.43, -13.02, -11.99, -13.44, -12.58, -12.07, -11.28, -10.4, -7.9, -5.2, -3.96, -0.0, -0.0, 3.68, 5.0, 5.75, 5.2, 5.4, 3.04, 2.93, 3.82, 8.85, 12.3, 12.52, 10.6, 7.27, 3.65, 1.33, 0.0, -1.33, -2.82, -3.11, -3.53, -4.58, -5.99, -7.69, -8.86, -11.62, -14.08, -10.02, 3.36, 14.11, 12.27, 10.75, 11.06, 11.06, 10.39, 10.47, 9.39, 8.43, 6.99, 6.99, 6.6, 7.06, 7.93, 7.69, 8.78, 7.68, 7.21, 7.21, 7.63, 6.66, 6.35, 6.16, 7.0, 7.76, 6.35, 4.66, 0.0, 6.6, 10.43, 8.94, 4.98, -0.0, -3.96, -5.4, -5.2, -0.0, 0.0, -7.9, -5.0, -6.94, -7.11, -7.69, -7.59, -5.99, -2.35, 0.0, 1.83, -16.52, -16.52, -16.39, -15.99, -15.59, -15.19, -14.39, -13.99, -13.8, -12.95, -12.62, -13.15, -11.6, -8.85, -9.17, -10.8, -10.73, -11.45, -6.7, -5.2, -5.28, -3.56, -0.0, 3.14, 5.52, 6.71, 6.97, 5.4, 2.93, -0.0, 3.47, 7.69, 11.87, 9.83, 5.69, 2.83, 1.0, 0.0, -2.04, -3.25, -5.08, -6.65, -7.78, -10.01, -13.17, -15.6, -15.82, -12.35, 0.0, 13.99, 12.27, 10.75, 10.75, 10.75, 10.75, 11.06, 9.91, 9.12, 7.97, 7.32, 6.6, 6.18, 6.4, 7.13, 8.51, 7.95, 8.41, 7.5, 7.21, 7.2, 7.4, 6.54, 5.09, 5.64, 6.8, 5.99, 5.67, 0.0, 6.6, 10.43, 8.94, 4.98, -0.0, -3.96, -5.4, -5.2, -0.0, 0.0, -7.9, -5.0, -6.94, -7.11, -7.69, -7.59, -5.99, -2.35, 0.0, 1.83, -16.52, -16.52, -16.39, -16.13, -15.84, -15.76, -14.97, -14.2, -13.38, -13.19, -12.39, -10.4, -11.12, -9.66, -5.2, -5.2, -6.45, -11.28, -10.8, -6.67, -5.64, -6.21, -4.93, -2.2, -0.0, 6.44, 6.44, 4.8, 2.71, -0.0, -3.58, -0.0, -0.0, 11.18, 2.69, 0.0, 0.0, -1.75, -3.65, -5.98, -7.24, -10.04, -12.64, -14.54, -15.39, -13.9, -9.88, 0.0, 12.27, 10.75, 9.89, 9.12, 10.01, 10.01, 10.43, 10.75, 9.62, 7.97, 6.6, 6.6, 5.81, 5.99, 6.2, 7.95, 8.66, 9.06, 8.85, 8.46, 8.46, 7.98, 7.2, 6.66, 3.79, 0.0, 2.89, 4.05, 3.69, 3.3, 0.0, 10.43, 12.79, 7.44, -0.0, -3.82, -3.68, -0.0, 7.9, 0.0, -3.53, -6.44, -6.95, -9.06, -9.71, -9.22, 0.0, 8.05, 6.67, 3.44, -16.52, -16.52, -16.52, -15.99, -15.99, -15.59, -15.19, -14.79, -13.58, -12.99, -12.2, -11.2, -11.5, -9.67, -8.22, -6.97, -6.97, -7.24, -11.28, -8.53, -5.0, -5.0, -5.54, -4.62, -3.47, -0.0, 4.6, 5.46, 3.11, -0.0, -7.24, -9.8, -12.22, -14.84, -8.85, -4.8, -5.29, -5.32, -7.36, -9.48, -11.7, -13.59, -13.91, -11.48, -8.18, -4.65, 0.0, 5.81, 6.6, 5.48, 6.6, 8.43, 8.18, 9.71, 9.8, 9.22, 7.43, 6.99, 5.81, 5.63, 4.96, 5.99, 7.68, 8.66, 9.27, 9.92, 10.57, 9.77, 10.99, 10.86, 9.0, 7.0, 4.5, 0.0, 0.0, -2.72, 0.0, 2.5, 3.69, 4.38, 9.48, 13.41, -0.0, -2.82, -0.0, -0.0, 8.53, 0.0, -5.75, -6.73, -7.82, -8.85, -8.31, 0.0, 12.96, 11.5, 5.8, 1.55, -16.52, -16.52, -16.52, -15.99, -16.13, -16.14, -15.76, -15.01, -13.81, -12.81, -11.99, -11.36, -11.09, -10.4, -9.3, -9.08, -8.22, -7.26, -6.97, -11.71, -6.67, -3.96, -3.68, -3.19, -3.98, -3.32, -2.45, -0.0, -0.0, -7.27, -10.18, -10.0, -10.16, -12.08, -14.19, -12.42, -12.37, -9.8, -11.82, -13.11, -12.78, -10.31, -6.76, -3.36, 0.0, 1.06, 2.18, 2.18, 2.24, 3.69, 5.48, 6.95, 7.93, 8.85, 9.06, 7.92, 6.6, 6.18, 5.81, 4.81, 4.81, 6.64, 8.66, 10.97, 10.92, 12.19, 11.48, 11.7, 12.47, 12.69, 10.26, 8.37, 8.63, 6.47, 2.57, -2.54, -5.15, 0.0, 5.15, -0.0, -0.0, 0.0, -8.53, -2.19, -2.19, -8.22, -3.82, -3.68, -6.51, -7.82, -7.93, -5.8, 0.0, 12.96, 12.96, 8.05, 1.83, 0.0, -16.52, -16.52, -16.52, -15.99, -16.13, -15.99, -15.59, -15.19, -14.22, -13.41, -11.83, -10.4, -10.48, -9.97, -9.58, -9.3, -9.3, -9.08, -7.9, -11.4, -6.97, -6.08, -6.0, -5.28, -4.93, -6.7, -8.53, -9.66, -11.6, -12.07, -9.33, -9.2, -10.28, -10.73, -11.95, -13.32, -12.18, -10.58, -11.14, -11.64, -10.41, -10.12, -4.38, 0.0, 0.0, -0.92, -1.83, -0.95, 0.0, 1.42, 3.98, 5.63, 7.34, 8.31, 7.82, 6.6, 5.04, 5.04, 5.3, 4.81, 4.97, 7.69, 11.03, 11.3, 12.46, 12.52, 11.78, 11.7, 11.48, 11.9, 10.64, 9.41, 9.71, 9.2, 6.81, 2.96, -2.63, -3.14, 4.81, 9.17, -10.8, -11.62, -10.0, -5.98, -6.97, -11.62, -9.42, -8.23, -7.92, -7.93, -6.67, 0.0, 13.41, 11.6, 11.6, 2.63, 0.0, -1.55, -16.52, -16.52, -16.52, -16.12, -16.26, -16.13, -15.74, -15.43, -14.79, -13.25, -11.44, -10.0, -10.09, -8.94, -8.53, -8.58, -8.73, -9.67, -8.82, -9.7, -10.38, -8.38, -9.32, -9.3, -9.5, -9.46, -10.4, -11.3, -11.5, -9.86, -11.18, -6.95, -3.11, -6.64, -10.0, -11.97, -11.68, -10.59, -8.22, -8.93, -11.87, -11.92, -11.64, -9.33, -7.49, -5.34, -4.15, -1.26, 1.53, 1.96, 2.02, 5.46, 7.1, 7.32, 7.1, 5.63, 5.31, 5.31, 4.89, 4.08, 5.55, 8.23, 10.75, 12.03, 13.55, 12.29, 11.43, 9.47, 8.4, 8.0, 7.22, 7.3, 6.81, 5.5, 4.55, 4.79, 3.42, 4.24, 6.0, 3.25, -11.03, -11.62, -11.91, -11.45, -11.91, -12.42, -12.39, -10.12, -8.2, -7.44, -9.48, 0.0, 11.99, 11.99, 9.48, 0.0, -1.77, -1.5, -16.12, -16.12, -16.12, -16.12, -15.99, -16.13, -15.59, -15.19, -14.64, -13.43, -11.6, -10.13, -10.09, -9.08, -7.54, -6.44, -7.26, -8.53, -8.22, -7.56, -5.0, -5.0, -11.21, -11.69, -11.97, -11.03, -11.45, -11.44, -9.86, -9.3, -10.6, -11.62, -10.96, -8.38, -8.73, -9.43, -10.0, -9.58, -8.85, -9.3, -10.6, -11.3, -11.6, -11.35, -11.2, -7.2, 0.0, 7.2, 8.18, 5.31, 2.45, 4.98, 7.69, 6.88, 6.88, 6.2, 5.63, 5.15, 3.53, 4.43, 5.4, 8.73, 10.75, 11.88, 12.87, 12.01, 9.12, 6.47, 4.66, 4.12, 4.91, 5.04, 2.13, 0.98, 0.95, 2.56, 4.52, 5.62, 4.65, 2.49, 0.0, -12.22, -12.0, -12.52, -12.52, -12.85, -11.5, -10.09, -8.44, -7.78, 0.0, 5.8, 9.48, 13.86, 4.24, 0.0, -1.71, -2.82, -16.12, -16.12, -16.12, -16.12, -16.12, -16.26, -15.59, -15.05, -14.64, -13.29, -11.85, -11.06, -11.92, -11.44, -9.82, -8.53, -8.53, -7.85, -7.56, -6.2, -2.71, 0.0, 0.0, -12.07, -10.04, -11.2, -8.8, -8.15, -9.08, -9.32, -11.55, -12.07, -12.47, -11.56, -10.0, -8.55, -8.93, -8.93, -6.45, -5.0, -11.2, -11.2, -10.19, -10.47, -10.12, 13.86, 16.09, 15.19, 12.36, 10.75, 8.85, 7.78, 8.38, 6.88, 6.88, 6.2, 5.15, 4.43, 3.29, 3.18, 5.08, 10.75, 12.65, 13.02, 12.36, 10.19, 7.21, 5.5, 3.58, 3.2, 2.65, 2.05, 0.0, 0.0, 0.0, 0.0, 1.15, 1.71, 1.57, 1.44, 2.44, -10.47, -14.22, -13.86, -12.44, -11.87, -10.99, -9.17, -7.82, -4.1, 12.96, 12.96, 9.17, 0.0, 0.0, -1.77, -2.82, -2.93, -15.72, -16.12, -16.12, -16.12, -16.12, -15.99, -15.73, -15.19, -14.1, -13.45, -12.5, -12.39, -11.6, -12.22, -12.18, -11.2, -11.12, -11.12, -10.48, -10.0, -9.2, -9.3, -6.45, -3.68, -11.18, -7.9, -7.68, -8.93, -10.73, -11.45, -12.52, -14.23, -13.86, -12.07, -11.62, -10.79, -7.59, -3.32, 3.68, 11.87, 8.53, -6.94, -5.4, 0.0, 6.45, 11.6, 11.99, 12.79, 12.22, 13.58, 11.33, 10.43, 9.16, 6.88, 6.2, 5.81, 3.98, 2.16, 2.0, 2.45, 8.57, 13.46, 14.51, 13.97, 12.36, 10.13, 6.64, 5.98, 1.96, 0.0, 0.0, 0.0, 0.0, -0.85, -0.98, -1.96, -3.53, -2.61, -2.22, -0.75, 0.0, 0.0, -16.31, -15.43, -13.86, -13.23, -11.88, -10.82, -7.44, 0.0, 0.0, 0.0, -12.52, -10.79, -6.67, -4.93, -3.96, -4.93, -15.72, -15.72, -16.12, -16.12, -16.12, -15.99, -15.59, -14.79, -14.26, -13.71, -12.77, -12.9, -12.72, -12.64, -12.21, -12.38, -13.62, -13.07, -13.64, -13.81, -15.43, -15.57, -14.55, -10.41, 0.0, -8.93, -7.27, -6.95, -8.23, -12.39, -12.07, -9.83, 6.95, 8.8, -9.83, -11.03, -6.45, 0.0, 11.03, 12.52, 12.96, 12.52, 0.0, 0.0, 0.0, 6.45, 9.66, 9.77, 10.79, 11.99, 11.33, 9.35, 8.53, 7.2, 5.09, 4.75, 2.72, 0.0, 0.0, 4.24, 14.51, 16.96, 14.79, 14.39, 13.65, 12.64, 10.19, 7.26, 2.15, -1.55, -3.36, -3.38, -3.32, -2.65, -2.64, -3.25, -4.87, -5.75, -7.21, -6.8, -3.87, -1.64, 0.0, -15.19, -15.27, -14.75, -14.42, -10.75, 0.0, 0.0, -8.85, -11.2, -12.14, -12.27, -9.42, -7.54, -5.8, -7.19, -15.72, -15.72, -16.12, -16.12, -16.12, -16.12, -15.59, -14.66, -14.79, -13.71, -13.15, -13.15, -13.35, -12.39, -11.16, -11.12, -10.13, -11.2, -12.25, -13.07, -13.82, -14.69, -14.3, -15.65, 0.0, 0.0, -0.0, 3.8, 7.59, -4.8, -5.0, 3.39, 7.59, 8.23, 7.27, 0.0, 0.0, 8.22, 5.2, 6.7, 8.85, 6.7, 5.2, 0.0, 0.0, 4.6, 6.7, 6.94, 7.19, 7.69, 6.4, 5.23, 4.55, 4.36, 3.77, 3.44, 3.31, 0.0, -2.37, 13.86, 17.88, 17.39, 16.54, 15.61, 15.71, 16.8, 15.8, 12.65, 7.06, 0.0, -2.64, -4.08, -4.66, -5.46, -4.65, -3.76, -4.47, -8.46, -9.39, -8.91, -7.71, -4.23, 0.0, -5.65, 0.0, -8.6, -5.51, 0.0, 0.0, 0.0, -5.6, -11.03, -11.62, -11.46, -11.2, -9.84, -8.3, -8.1, -15.72, -15.72, -15.72, -16.12, -16.12, -16.12, -15.59, -15.06, -14.52, -13.97, -13.42, -13.23, -13.23, -12.65, -11.8, -10.47, -10.45, -10.99, -11.56, -12.39, -13.35, -14.31, -14.75, 0.0, 0.0, 9.8, 12.72, 12.71, 11.45, 6.95, 3.53, 3.53, 4.8, 2.02, 2.49, -0.0, -0.0, -0.0, 2.71, 5.75, 5.98, 6.97, 6.2, -0.0, 0.0, 0.0, -8.22, -6.7, -7.19, -6.0, -5.6, -4.98, -5.63, -5.34, -2.79, 0.0, 2.84, 5.53, 0.0, 10.04, 15.61, 16.44, 17.33, 16.09, 18.33, 19.52, 18.6, 18.71, 17.39, 14.55, 10.0, 2.97, -2.02, -4.58, -4.4, -4.81, -6.1, -8.53, -8.53, -7.4, -8.93, -9.92, -5.5, -5.23, 0.0, -3.68, -3.86, -8.0, -3.9, 0.0, 0.0, -5.2, -10.6, -11.4, -11.2, -9.96, -9.17, -10.73, -15.72, -15.72, -16.12, -16.12, -16.12, -16.12, -15.72, -15.19, -15.06, -14.52, -13.58, -13.42, -13.23, -13.23, -12.32, -10.43, -9.8, -10.47, -11.05, -11.88, -12.6, -12.79, -12.27, -14.75, -0.0, -0.0, 9.8, 11.53, 10.73, 8.85, 2.6, -0.0, -0.0, -0.0, -0.0, -0.0, -0.0, -0.0, 4.6, 5.52, 5.52, 4.6, 3.39, 7.27, 9.83, 0.0, -8.4, -10.6, -10.4, -10.01, -11.2, -10.35, -8.53, -8.53, -6.94, -3.96, 0.0, 0.0, 0.0, 13.86, 12.03, 15.43, 16.54, 16.76, 16.37, 16.54, 16.19, 16.79, 17.85, 17.16, 17.71, 17.45, 17.39, -4.6, -5.75, -5.99, -6.52, -4.23, 0.0, 0.0, -12.01, -13.23, -9.61, -7.66, -5.35, -5.23, -4.91, -6.81, -7.8, 0.0, 0.0, 0.0, -3.53, -10.41, -10.73, -9.17, -9.17, -11.6, -15.72, -15.72, -16.12, -16.12, -16.12, -16.52, -16.12, -15.59, -14.79, -14.24, -13.68, -13.42, -13.23, -12.91, -12.54, -11.29, -10.06, -10.43, -10.82, -10.9, -11.03, -10.94, -11.17, -14.3, -0.0, -0.0, 4.38, 7.69, 7.44, 7.44, 3.96, -0.0, -0.0, -7.27, -7.27, -4.6, -4.8, -0.0, 5.0, 5.9, 6.17, 4.8, 5.46, 6.95, 6.95, 8.8, 6.95, 0.0, -10.73, -10.0, -9.67, -7.9, -4.8, 0.0, 9.83, 0.0, -10.4, -6.88, 0.0, 16.91, 10.37, 9.17, 12.39, 13.57, 13.99, 15.2, 16.54, 7.6, 11.38, 16.09, 15.8, 20.36, 19.95, 0.0, -9.48, -3.24, 0.0, 17.88, 0.0, 0.0, -12.33, -14.13, -10.02, -6.0, -5.8, -7.38, -6.8, -5.09, -3.16, 0.0, 0.0, 0.0, -2.82, -5.6, -6.0, -5.8, -12.96, -12.96, -15.72, -15.72, -16.12, -16.12, -16.12, -16.52, -16.12, -15.99, -14.94, -14.4, -13.85, -13.3, -13.12, -12.54, -12.24, -11.93, -11.33, -10.06, -10.76, -10.52, -10.98, -10.38, -10.43, -13.19, -10.43, -0.0, 4.38, 7.69, 7.44, 7.44, 4.24, -0.0, -0.0, -0.0, 0.0, -8.94, -7.27, 3.25, 6.44, 5.29, 5.63, 5.21, 5.7, 5.46, 6.95, 6.64, 6.95, 7.27, 7.27, -0.0, 0.0, 0.0, 11.62, 10.73, 9.39, 0.0, -7.27, -3.68, 4.66, 14.84, 11.45, 5.2, 5.2, 5.4, 8.53, 0.0, -12.96, 0.0, 13.39, 15.74, 17.17, 18.78, -0.0, -18.78, -15.2, 18.33, 19.22, 18.78, -0.0, -0.0, -18.33, -16.39, -9.42, -3.58, -2.93, -3.53, -6.9, -2.54, 0.0, 0.0, 0.0, -4.81, -3.14, -2.63, -3.04, -5.4, -12.52, -12.52, -15.72, -15.72, -16.12, -16.12, -16.12, -16.52, -16.52, -15.86, -15.33, -14.79, -13.85, -13.68, -13.12, -12.74, -12.09, -11.93, -11.33, -10.99, -10.09, -10.47, -10.18, -10.24, -9.97, -10.65, -14.3, -0.0, -0.0, 6.6, 10.43, 7.93, 6.0, 3.14, -0.0, -0.0, 0.0, -0.0, 2.39, 3.98, 6.17, 5.9, 4.4, 4.96, 4.6, 6.32, 5.46, 5.46, 5.7, 3.25, 7.27, 7.27, 4.6, 7.59, 7.9, 0.0, 0.0, 0.0, 0.0, 4.8, 10.8, 12.96, 8.85, 5.0, 3.39, 4.8, 7.59, 7.27, 0.0, 0.0, 0.0, 7.8, 0.0, -12.96, -14.3, -18.79, -0.0, 16.79, 18.85, 19.67, 19.67, 0.0, 0.0, 0.0, -7.6, -3.69, 0.0, 0.0, -5.4, 0.0, -3.25, -4.38, -3.2, -4.24, -4.65, -4.81, -2.54, -3.82, -12.52, -12.52, -15.72, -15.72, -16.12, -16.12, -16.12, -16.52, -16.52, -15.86, -15.33, -14.51, -13.95, -13.39, -13.12, -12.45, -12.45, -11.58, -11.28, -11.33, -11.04, -9.8, -9.5, -9.85, -9.89, -9.48, -8.38, -4.52, -10.75, 0.0, 6.8, 6.8, 4.66, 1.9, 1.77, 1.58, 3.39, 2.02, 2.7, 1.69, 1.93, 2.39, 3.11, 3.11, 3.11, 3.25, 3.25, 3.25, 3.39, 3.25, 3.25, 4.6, 4.6, 7.27, 7.27, 10.28, 10.28, 10.28, 7.27, 4.8, 0.0, 0.0, -0.0, 5.2, 3.39, 5.95, 7.59, 6.95, 8.4, -10.28, -10.8, -12.52, -20.12, -15.74, -15.74, -17.17, -0.0, 13.59, 17.53, 18.78, 17.59, 13.28, 9.67, 8.0, 0.0, -6.0, -8.85, -12.52, -10.79, -4.1, -8.05, -7.93, -6.4, -4.1, -3.68, -6.21, -4.81, -5.8, -11.2, -11.2, -15.72, -15.72, -15.72, -15.72, -16.12, -16.12, -16.52, -15.86, -15.72, -15.06, -14.13, -13.95, -13.39, -12.45, -12.45, -11.6, -11.23, -11.58, -10.7, -8.85, -9.13, -10.04, -10.18, -10.18, -7.51, -7.69, -7.78, -9.8, -0.0, 3.36, 3.81, 2.81, 3.6, 3.18, 3.53, 3.85, 2.82, 0.82, -0.0, -0.0, -0.0, -0.0, -0.0, -0.0, -0.0, -0.0, 3.39, 3.25, 3.25, 4.6, 4.6, 9.2, 9.2, 9.2, 10.28, 10.28, 7.27, 0.0, 0.0, 0.0, -0.0, 5.2, 7.9, 8.18, 7.87, 6.64, 8.91, 0.0, -6.7, -6.4, -3.51, 0.0, 0.0, 0.0, 0.0, 15.65, 16.09, 11.7, 7.6, 6.47, 0.0, 0.0, -14.39, -12.52, -13.01, -13.15, -12.72, -11.6, -9.48, -10.18, -9.16, -6.65, -5.4, -7.26, -7.13, -8.58, -9.8, -9.8, -15.59, -15.59, -15.59, -15.59, -15.99, -16.12, -15.86, -15.86, -15.72, -15.06, -14.51, -13.95, -13.39, -12.82, -12.52, -11.23, -11.23, -11.16, -10.66, -10.12, -10.12, -10.37, -11.14, -10.94, -10.99, -10.79, -11.6, -13.15, -13.15, -0.0, 1.77, 2.72, 3.47, 4.12, 3.42, 3.16, 2.25, 1.63, 0.89, 0.93, 0.97, 1.07, 1.39, 1.58, -0.0, -0.0, 3.25, 3.25, 3.25, 3.11, 4.4, 7.27, 7.59, 10.0, 9.83, 9.83, 7.9, 0.0, -7.59, 0.0, -0.0, 4.8, 7.59, 8.93, 8.55, 8.55, 9.2, 5.0, 0.0, 1.33, 3.72, 4.51, 4.52, 1.25, -2.45, -7.4, -12.87, -12.87, -2.72, 0.0, -3.07, -5.23, -14.42, -13.41, -13.86, -13.23, -12.72, -11.12, -10.55, -11.5, -12.33, -9.48, -7.54, -10.12, -10.82, -10.75, -11.8, -11.8, -15.59, -15.59, -15.59, -15.59, -15.59, -15.59, -15.86, -15.86, -15.72, -15.45, -14.51, -13.95, -13.58, -12.73, -12.87, -12.22, -11.58, -11.35, -11.22, -11.42, -11.44, -11.44, -11.77, -11.54, -12.13, -12.56, -13.15, -12.96, -11.71, -2.82, -0.0, 1.44, 2.52, 3.06, 2.82, 2.71, 2.51, 1.63, 1.76, 2.0, 2.0, 2.19, 2.42, 2.93, 1.91, -0.0, -0.0, 3.25, 3.25, 3.25, 3.11, 5.7, 7.59, 10.0, 10.18, 10.28, 11.18, 11.18, -11.62, -7.9, -0.0, 7.9, 7.59, 6.2, 4.6, 4.8, 7.59, 10.8, 7.78, 8.31, 9.2, 8.63, 5.92, 0.0, -4.51, -11.16, -15.23, -15.09, -13.23, -9.49, -8.05, -7.0, -10.43, -13.41, -13.86, -12.72, -12.72, -12.72, -9.48, -10.35, -12.04, -11.99, -10.99, -11.16, -12.39, -13.19, -13.7, -13.7, -15.19, -15.59, -15.59, -15.59, -15.59, -15.33, -15.33, -15.72, -15.72, -15.06, -14.51, -13.85, -13.3, -13.1, -13.1, -12.57, -11.87, -12.09, -11.99, -12.47, -11.96, -11.6, -11.6, -11.36, -11.54, -11.9, -13.07, -12.96, -11.84, -8.53, -0.0, -0.0, 1.44, 2.28, 2.08, 2.0, 1.91, 1.91, 2.71, 2.94, 3.21, 3.21, 3.53, 4.24, 3.07, 1.76, 3.39, 3.11, 3.25, 3.25, 3.25, 5.95, 7.59, 7.9, 10.18, 10.6, 11.28, 10.41, -0.0, -7.59, -0.0, 8.93, 10.0, 7.9, 5.0, 5.0, 8.22, 12.07, 12.3, 14.47, 13.99, 14.22, 11.23, 6.63, -8.8, -11.34, -15.19, -16.59, -15.99, -14.94, -13.42, -13.23, -11.38, -10.75, 0.0, 0.0, 0.0, -14.3, -10.43, -7.54, -10.04, -11.64, -11.9, -12.27, -13.57, -14.11, -14.75, -14.75, -15.19, -15.19, -15.19, -15.59, -15.33, -15.33, -15.33, -15.33, -15.06, -15.06, -14.51, -13.85, -13.67, -13.3, -12.8, -12.45, -12.22, -12.16, -12.45, -12.45, -12.24, -11.6, -11.16, -10.79, -11.05, -11.66, -12.17, -13.77, -12.79, -11.2, -5.4, -2.28, -0.0, 1.28, 1.16, 2.28, 2.08, 2.08, 3.06, 3.06, 3.34, 4.72, 4.72, 5.2, 5.77, 4.4, 3.39, 2.97, 2.97, 3.25, 3.25, 5.95, 5.95, 9.3, 8.93, 9.6, 9.58, 11.6, 12.96, 0.0, 9.39, 10.28, 11.62, 11.03, 10.0, 10.0, 11.62, 11.18, 11.62, 12.52, 13.86, 0.0, 8.34, 9.8, -7.63, -9.24, -12.14, -14.05, -15.56, -15.81, -13.75, -15.65, -15.65, 0.0, 0.0, 0.0, 0.0, -14.3, -12.65, -9.12, -8.3, -11.16, -12.27, -12.79, -14.3, -13.57, -12.79, -12.79, -15.19, -15.19, -14.94, -14.94, -15.33, -15.33, -15.33, -15.33, -15.06, -15.06, -14.67, -13.85, -13.85, -13.38, -13.01, -12.45, -11.87, -12.16, -12.16, -12.52, -11.93, -11.64, -11.01, -10.88, -10.88, -11.37, -11.81, -13.27, -13.41, -12.04, -8.85, -5.4, -1.91, -0.0, 1.23, 2.19, 2.19, 3.21, 3.34, 3.34, 3.68, 4.72, 5.2, 6.16, 6.76, 5.54, 5.6, 6.2, 7.59, 7.9, 8.22, 6.2, 5.95, 5.95, 7.27, 7.27, 8.23, 9.66, 12.3, 11.03, 4.96, 8.91, 11.18, 11.62, 11.18, 12.07, 12.07, 12.52, 11.18, 11.18, -11.18, -12.85, -11.6, -0.0, -0.0, -13.41, -12.89, -12.3, -13.7, -14.42, -13.75, -14.3, -0.0, -0.0, 0.0, 0.0, -14.75, -14.75, -13.59, 0.0, -8.31, -8.05, -11.53, -13.86, -0.0, -4.52, -4.38, -4.38, -15.19, -15.19, -14.94, -14.94, -14.94, -14.94, -15.33, -15.33, -15.06, -15.06, -14.4, -13.85, -13.58, -13.58, -13.38, -13.01, -12.45, -12.16, -12.16, -12.52, -12.22, -11.68, -11.72, -11.32, -11.26, -10.99, -11.83, -12.38, -13.33, -13.41, -12.58, -10.79, -5.6, -1.91, -0.0, 1.18, 2.42, 3.53, 3.53, 3.68, 3.68, 5.2, 5.54, 6.5, 6.5, 6.24, 5.77, 6.7, 7.68, 8.43, 9.2, 8.85, 5.95, 5.95, 7.27, 7.27, 6.17, 5.9, 9.67, 12.52, 7.9, 7.81, 9.83, 10.73, 11.62, 12.07, 12.07, 12.07, 12.07, -8.22, -10.47, -9.39, -6.02, 0.0, 0.0, 0.0, -12.64, -14.53, -12.79, -12.56, -13.44, -13.86, -0.0, -0.0, -0.0, -10.43, -14.75, -14.75, 0.0, 15.65, 16.99, -6.6, -6.4, 0.0, -0.0, -0.0, -3.36, -3.36, -14.79, -14.79, -14.54, -14.94, -14.94, -14.94, -14.94, -14.67, -15.06, -15.06, -14.4, -14.23, -13.58, -13.58, -13.58, -13.38, -12.45, -12.45, -12.22, -12.22, -12.22, -11.97, -12.0, -12.05, -11.42, -11.37, -11.12, -11.77, -12.42, -12.96, -12.96, -12.58, -10.41, -5.4, -0.0, -0.0, 2.6, 2.6, 3.92, 3.92, 5.0, 5.77, 5.54, 7.15, 6.87, 6.87, 7.44, 7.27, 8.18, 8.8, 10.75, 10.6, 10.41, 8.53, 7.9, 7.59, 6.17, 4.4, 5.7, 10.4, 11.45, 10.8, 9.39, 9.83, 11.18, 12.07, 12.52, 12.52, 12.96, 0.0, -10.04, -7.36, -4.47, 0.0, 2.09, 7.58, 6.93, -10.73, -10.79, -10.79, -12.33, -13.59, -0.0, 5.15, 3.47, -0.0, 0.0, 0.0, 10.43, 10.75, 16.99, 0.0, -15.2, 0.0, -0.0, -0.0, -0.0, -0.0, -14.54, -14.54, -14.54, -14.94, -14.94, -14.94, -14.94, -14.67, -14.67, -14.67, -14.4, -14.4, -13.58, -13.58, -13.58, -13.58, -13.01, -12.45, -12.45, -12.45, -12.22, -11.87, -11.93, -12.07, -12.16, -11.75, -11.69, -11.6, -11.8, -12.58, -12.96, -12.52, -12.52, -12.07, -11.45, -5.2, -0.0, 2.19, 3.98, 5.29, 6.98, 7.26, 9.08, 7.59, 8.03, 8.73, 8.73, 8.03, 8.18, 8.8, 10.32, 11.06, 9.89, 8.93, 7.9, 5.95, 4.8, 4.6, 2.28, 4.6, 11.45, 11.18, 10.84, 10.73, 12.52, 11.62, 12.07, 0.0, 0.0, -11.6, -10.79, -7.44, -7.16, -4.12, 1.67, 8.62, 5.96, -3.23, -9.13, -9.13, -9.97, -12.58, -0.0, 4.1, 2.72, 4.66, 0.0, 11.06, 13.59, 6.6, -0.0, 0.0, 0.0, 0.0, 0.0, 0.0, 0.0, 0.0, -14.54, -14.54, -14.54, -14.94, -14.94, -15.07, -15.07, -14.82, -14.67, -14.67, -14.4, -14.4, -13.94, -13.94, -13.66, -13.58, -13.38, -13.01, -12.8, -12.8, -12.45, -11.87, -11.93, -11.64, -12.05, -11.79, -11.75, -11.5, -10.87, -11.39, -11.72, -11.45, -11.84, -12.07, -12.07, -10.4, -0.0, -0.0, 6.2, 6.44, 7.9, 9.3, 9.58, 9.75, 9.64, 10.52, 10.08, 8.82, 9.33, 9.89, 11.06, 10.62, 10.73, 9.97, 9.32, 8.22, 5.0, 2.6, 2.02, 3.82, 6.2, 10.6, 11.18, 12.07, 11.62, 12.52, 13.41, -12.52, -12.07, -11.6, -7.93, -6.4, -6.51, -8.31, -7.54, -5.65, -6.81, -9.89, -13.59, -9.55, -9.58, -9.67, -9.48, 3.04, 3.04, 3.36, 8.18, 11.06, 13.02, 10.43, -0.0, 0.0, 0.0, 0.0, -16.54, -11.06, -10.75, -10.75, -14.54, -14.54, -14.54, -14.54, -15.07, -15.07, -14.82, -14.82, -14.67, -14.67, -14.4, -14.4, -13.94, -13.66, -13.66, -13.58, -13.38, -13.38, -12.73, -12.51, -12.45, -12.22, -12.16, -11.88, -11.6, -11.32, -11.05, -11.16, -10.53, -10.81, -10.8, -11.09, -11.45, -11.84, -11.28, -11.62, -11.62, -0.0, 7.9, 7.59, 9.3, 10.0, 10.38, 12.07, 12.07, 10.28, 9.39, 9.83, 10.28, 10.18, 11.18, 10.73, 10.28, 10.28, 10.62, 8.93, 6.7, 5.2, 3.98, 3.53, 5.0, 7.9, 8.53, 11.2, 11.71, 12.96, 13.86, 0.0, -11.62, -11.62, -9.8, -1.83, -3.65, -7.69, -11.44, -14.66, -17.52, -18.96, -18.78, -15.77, -8.53, -7.81, -8.85, 0.0, 5.8, 7.44, 8.05, 5.48, 4.81, 6.8, -0.0, 0.0, 0.0, -16.09, -16.99, -12.01, -7.4, -7.4, -14.54, -14.54, -14.54, -14.54, -15.07, -15.07, -14.82, -14.82, -14.67, -14.67, -14.67, -14.4, -14.13, -13.66, -13.66, -13.58, -13.38, -13.38, -13.09, -12.73, -12.51, -12.22, -12.16, -11.88, -11.6, -11.01, -10.73, -10.45, -10.19, -10.01, -10.56, -10.55, -10.48, -10.4, -10.79, -9.67, -10.4, 0.0, 0.0, 10.73, 10.73, 10.41, 10.96, 10.73, 11.18, 11.62, 11.18, 10.18, 10.18, 11.02, 11.02, 10.18, 10.28, 10.28, 10.73, 10.62, 7.56, 5.92, 3.68, 3.53, 2.1, -0.0, -0.0, 3.68, 10.8, 12.27, 13.41, 14.3, 0.0, -9.83, -7.59, -2.63, 0.0, -1.13, -8.94, -13.59, -14.7, -17.2, -18.33, -17.99, -14.86, -8.85, -6.76, -3.04, 0.0, 14.3, 8.31, 2.81, -0.0, -0.0, 4.66, -0.0, 0.0, 0.0, -11.38, -12.33, 0.0, 0.0, -14.54, -14.54, -14.54, -14.54, -14.54, -14.94, -14.67, -14.67, -14.29, -14.29, -14.67, -14.4, -14.13, -13.66, -13.66, -13.09, -13.01, -13.09, -13.09, -13.09, -12.51, -12.22, -11.93, -11.88, -11.29, -10.65, -10.37, -9.5, -9.56, -9.62, -9.69, -9.77, -9.66, -9.82, -9.08, -8.94, -6.2, -3.53, 0.0, 7.59, 9.6, 10.73, 10.73, 10.73, 10.73, 12.07, 11.71, 10.32, 9.89, 10.6, 10.18, 9.75, 9.75, 10.62, 10.62, 10.73, 10.18, 8.82, 3.98, 1.58, -0.0, -2.82, -0.0, 6.45, 8.53, 9.3, 10.4, 12.96, 3.82, 0.0, 0.0, 0.0, 2.21, 2.83, -1.1, -8.0, -9.17, -7.59, -13.76, -17.59, -17.52, -13.59, -5.8, -1.9, 0.0, 3.47, 14.3, 3.47, 2.35, 5.48, 6.6, 8.18, 13.59, 11.06, 0.0, 0.0, 5.37, 5.37, -14.15, -14.15, -14.54, -14.54, -14.54, -14.29, -14.29, -14.29, -14.29, -14.29, -14.03, -14.4, -14.4, -13.66, -13.66, -13.09, -13.01, -12.73, -13.09, -12.51, -12.16, -11.87, -11.8, -11.23, -10.94, -10.35, -10.06, -9.42, -9.69, -8.22, -8.85, -8.85, -8.85, -8.53, -8.53, -6.45, -5.75, -2.19, 0.0, 0.0, 5.7, 8.93, 9.6, 9.96, 10.18, 10.6, 10.0, 9.6, 9.6, 10.0, 9.6, 9.75, 10.18, 10.18, 9.89, 10.18, 11.06, 10.75, 6.24, 2.02, -2.37, -2.82, 2.82, 6.71, 6.97, 7.9, 7.27, 10.4, 0.0, 0.0, 3.25, 0.0, -9.8, 0.0, 1.45, -2.3, -8.05, -7.9, -4.38, -4.34, -6.81, -4.34, 0.0, 1.58, 1.47, 1.68, 0.0, 0.0, 6.4, 8.31, 8.31, 8.58, 8.18, 15.2, 10.75, 8.68, 11.38, 11.38, -14.15, -14.15, -14.15, -14.54, -14.54, -14.29, -14.29, -14.29, -14.29, -14.03, -14.03, -14.03, -14.4, -13.94, -13.66, -13.09, -12.73, -12.51, -12.51, -12.51, -12.16, -11.87, -11.58, -11.23, -10.65, -10.35, -9.71, -9.46, -8.87, -9.17, -8.22, -8.12, -8.07, -6.92, -6.7, -6.16, -4.58, -3.07, 0.0, 0.0, 2.02, 4.8, 7.59, 8.38, 8.73, 8.93, 8.93, 8.55, 8.93, 8.38, 8.82, 8.82, 10.6, 10.18, 9.75, 10.18, 10.18, 10.73, 9.75, 5.95, 1.52, -0.0, 8.22, 7.59, 7.9, 7.9, 6.44, 5.7, 8.22, 12.96, 10.8, 11.18, -11.62, -9.35, -4.63, -1.31, -5.48, -11.62, 4.24, 2.35, 2.0, 0.0, 0.0, 0.0, 1.27, 1.37, 0.0, 0.0, 14.3, 11.16, 9.17, 9.48, 7.69, 13.57, 14.3, 12.65, 13.59, 13.59, -14.15, -14.15, -14.15, -14.15, -14.54, -14.29, -14.29, -14.29, -14.29, -14.03, -14.03, -14.03, -14.03, -13.94, -13.09, -13.09, -12.51, -12.51, -12.51, -11.92, -11.87, -11.87, -11.28, -11.23, -10.65, -10.06, -9.76, -9.15, -8.85, -8.19, -7.44, -7.36, -6.84, -6.48, -5.78, -5.2, -3.68, -2.52, -1.39, 0.0, 1.76, 3.25, 5.52, 7.59, 7.59, 7.9, 7.27, 7.27, 7.59, 8.38, 8.38, 9.58, 9.2, 9.55, 9.75, 9.75, 9.75, 9.33, 10.28, 10.18, 6.94, 7.9, 7.9, 9.3, 7.27, 6.44, 6.44, 4.8, 5.2, 8.85, 12.52, 12.52, 0.0, -8.72, -10.09, -4.04, 0.0, 6.16, 6.73, 5.5, 3.62, 0.0, 0.0, 0.0, 0.0, 0.0, 1.6, 3.69, 10.12, 13.41, 11.87, 10.41, 8.85, 11.99, 13.41, 13.99, 15.2, 15.2, -14.15, -14.15, -14.15, -14.15, -14.15, -14.29, -14.29, -14.29, -14.03, -14.03, -14.03, -14.03, -14.03, -13.94, -13.58, -12.73, -12.51, -12.51, -12.16, -11.92, -11.87, -11.63, -11.28, -11.03, -10.69, -10.06, -9.46, -9.17, -8.85, -8.15, -7.8, -6.97, -6.45, -5.86, -5.2, -4.81, -3.97, -2.28, -1.23, 0.0, 1.33, 2.82, 4.05, 5.95, 6.58, 6.58, 6.3, 7.27, 6.42, 6.7, 8.38, 9.58, 9.2, 9.55, 9.96, 9.55, 9.33, 9.33, 9.33, 10.28, 8.0, 8.22, 5.95, 7.9, 7.9, 6.2, 5.95, 5.0, 6.2, 8.53, 11.87, 13.86, 0.0, -3.28, -5.55, -3.53, 2.27, 6.1, 6.81, 5.05, 2.04, 0.0, -1.56, -2.5, 0.0, 1.63, 4.66, 7.59, 9.48, 11.2, 12.52, 12.52, 11.2, 12.52, 12.96, 12.96, 14.75, 14.75, -13.62, -13.62, -14.15, -14.15, -13.9, -13.9, -14.29, -14.29, -14.03, -14.03, -14.03, -14.03, -13.85, -13.58, -13.38, -13.09, -12.51, -12.51, -11.92, -11.92, -11.63, -11.63, -11.03, -11.03, -10.42, -10.09, -9.48, -8.85, -8.54, -8.2, -7.73, -7.36, -6.09, -5.3, -5.0, -4.3, -3.82, -2.19, -1.11, 0.0, 1.18, 2.6, 3.61, 4.88, 4.88, 5.46, 5.46, 5.7, 6.42, 6.7, 7.59, 8.58, 8.82, 9.96, 9.55, 8.43, 8.43, 9.33, 9.33, 10.18, 9.97, 6.87, 5.95, 5.7, 5.7, 6.2, 5.7, 5.95, 6.2, 6.2, 11.6, 12.96, 7.0, 2.4, 0.0, -1.09, 0.0, 3.42, 3.53, 1.82, 0.0, 0.0, 0.0, 0.0, 3.25, 4.81, 6.67, 7.82, 7.82, 7.78, 10.79, 12.96, 12.96, 12.96, 12.52, 12.96, 13.86, 13.86, -13.62, -13.62, -14.01, -14.01, -13.9, -13.9, -14.29, -14.03, -14.03, -14.03, -13.85, -13.85, -13.48, -13.01, -13.01, -12.73, -12.51, -11.92, -11.92, -11.33, -11.63, -11.36, -11.03, -11.03, -10.42, -9.8, -9.48, -8.87, -8.24, -7.9, -7.54, -7.46, -6.53, -6.09, -4.68, -4.3, -3.53, -2.94, -1.01, 0.0, 1.18, 2.33, 3.61, 4.15, 4.66, 3.87, 4.05, 4.6, 5.29, 6.7, 7.59, 7.59, 8.82, 9.96, 9.13, 8.43, 8.43, 8.4, 8.8, 9.33, 9.83, 8.63, 5.7, 5.46, 5.95, 7.9, 8.18, 8.55, 8.93, 7.59, 8.22, 12.3, 13.02, 5.94, 2.32, -2.36, -4.38, -4.67, -4.85, -4.38, -3.09, 0.0, 0.0, 0.0, 4.48, 6.67, 7.44, 7.19, 8.1, 6.67, 9.17, 13.41, 9.48, -0.0, 0.0, 0.0, 0.0, 13.41, -13.62, -13.62, -13.62, -13.75, -13.75, -13.75, -13.75, -13.48, -13.85, -13.85, -13.48, -13.48, -13.3, -13.3, -13.01, -13.01, -12.51, -11.92, -11.92, -11.33, -11.36, -11.03, -11.33, -10.74, -10.42, -9.8, -9.5, -8.87, -8.54, -7.61, -7.24, -7.14, -6.7, -5.77, -5.2, -4.01, -3.29, -2.71, -0.93, 0.0, 0.0, 2.1, 3.25, 4.32, 3.45, 3.45, 2.82, 3.25, 5.29, 5.52, 7.27, 7.27, 8.82, 8.82, 8.43, 8.05, 8.05, 8.4, 8.4, 9.33, 9.83, 9.11, 9.6, 6.64, 8.18, 8.93, 8.93, 8.55, 10.18, 10.6, 10.0, 11.6, 13.19, 3.12, 2.53, 1.34, -2.89, -8.16, -10.42, -9.0, -5.37, -2.5, 0.0, 2.09, 4.38, 6.9, 6.88, 6.88, 6.65, 6.65, 6.9, 9.48, 9.48, -0.0, -0.0, -0.0, -0.0, 0.0, -13.62, -13.62, -13.62, -13.36, -13.75, -13.75, -13.75, -13.48, -13.48, -13.48, -13.48, -13.48, -13.3, -13.3, -12.65, -13.01, -12.51, -12.51, -11.33, -11.33, -11.36, -11.03, -10.74, -10.42, -10.12, -9.8, -9.5, -8.87, -8.24, -7.6, -7.24, -6.84, -6.4, -5.68, -4.92, -4.58, -3.07, -2.51, -0.86, 0.0, 0.0, 1.02, 2.23, 2.13, 3.68, 3.11, 3.77, 2.95, 4.6, 5.29, 6.14, 6.95, 6.64, 7.33, 8.05, 8.05, 6.98, 7.44, 7.81, 8.4, 9.74, 9.32, 6.99, 8.18, 8.55, 8.55, 8.18, 8.55, 8.93, 10.6, 10.0, 8.22, 0.0, 0.0, 5.65, 10.75, 6.63, -1.78, -7.93, -7.95, -6.0, -3.68, 0.0, 3.68, 5.11, 6.88, 5.81, 5.99, 4.52, 4.38, 4.87, 5.15, 13.86, -0.0, -0.0, -0.0, -0.0, -0.0, -13.62, -13.62, -13.62, -13.36, -13.36, -13.36, -13.75, -13.48, -13.48, -13.48, -13.48, -13.48, -13.3, -12.93, -12.65, -12.45, -12.45, -11.92, -11.33, -10.99, -11.03, -11.03, -10.42, -10.42, -9.8, -9.8, -8.87, -8.87, -8.24, -7.87, -7.51, -6.58, -6.16, -5.2, -4.92, -4.32, -3.19, -2.34, -1.7, -0.89, 0.0, 0.0, 0.0, 1.14, 1.09, 1.84, 3.25, 3.61, 3.87, 4.4, 4.2, 5.86, 5.86, 5.59, 6.32, 6.98, 6.63, 6.98, 6.98, 7.33, 8.91, 9.32, 10.41, 8.18, 8.18, 8.55, 8.18, 7.59, 8.55, 9.3, 10.4, 8.22, 0.0, -9.8, 0.0, 8.35, 11.29, 6.13, 0.0, -7.19, -10.43, 0.0, 4.38, 3.85, 4.98, 3.98, 3.1, 3.2, 3.2, 2.81, 2.81, 2.35, 13.86, -0.0, -0.0, -0.0, -0.0, -0.0, -13.62, -13.62, -13.62, -13.36, -13.36, -13.36, -13.75, -13.48, -13.48, -13.48, -13.48, -13.3, -12.93, -12.93, -12.73, -12.09, -12.09, -11.58, -11.58, -10.72, -10.72, -10.42, -10.42, -10.09, -9.48, -9.48, -8.58, -8.24, -8.24, -7.6, -7.51, -6.84, -5.7, -5.2, -4.92, -4.32, -2.99, -2.44, -1.7, -0.86, -0.89, 0.0, 0.0, 0.0, 0.0, 1.07, 2.02, 2.13, 3.3, 3.7, 3.7, 4.0, 4.0, 5.59, 5.31, 5.31, 6.28, 6.01, 6.32, 6.98, 8.91, 8.94, 8.24, 8.18, 8.18, 8.18, 8.55, 8.55, 8.55, 7.9, 8.22, 7.9, 0.0, -12.52, -10.43, -3.16, 0.0, 4.19, 7.41, 8.8, 10.41, 8.68, 7.49, 5.81, 3.46, 2.28, 1.53, 2.02, 0.0, 0.0, 0.0, 0.0, 0.0, -0.0, -0.0, -0.0, -0.0, -0.0, -13.23, -13.23, -13.62, -13.36, -13.36, -13.36, -13.75, -13.48, -13.3, -13.3, -12.93, -12.93, -12.93, -12.37, -12.37, -12.16, -11.87, -11.87, -11.33, -10.72, -10.72, -10.12, -10.09, -9.77, -9.48, -8.87, -8.87, -8.24, -7.89, -7.51, -6.84, -6.4, -5.7, -5.2, -4.92, -4.32, -2.99, -2.44, -1.77, -1.7, -0.93, -0.89, 0.0, 0.0, 0.0, 0.0, 1.07, 1.93, 2.04, 2.17, 2.46, 3.52, 4.0, 4.0, 5.31, 5.31, 5.03, 5.03, 6.01, 6.32, 7.67, 8.94, 8.73, 9.6, 8.18, 6.95, 8.55, 8.93, 7.27, 7.9, 7.9, 4.8, 0.0, -11.6, -11.16, -10.75, -5.14, 1.58, 7.48, 12.83, 14.28, 13.87, 9.48, 6.81, 4.16, 2.28, 2.02, 0.0, 0.0, 0.0, 0.0, 0.0, 0.0, -0.0, -0.0, -0.0, -0.0, -0.0, -13.23, -13.23, -13.09, -13.2, -13.2, -13.36, -12.93, -12.93, -12.93, -12.93, -12.93, -12.37, -12.37, -12.37, -11.8, -11.8, -11.52, -11.28, -10.99, -10.75, -10.43, -10.4, -10.12, -9.8, -9.48, -8.87, -8.54, -8.24, -7.89, -7.24, -6.84, -6.4, -5.7, -4.92, -4.32, -3.68, -2.99, -2.44, -2.44, -1.7, -1.7, -0.89, -0.89, 0.0, 0.0, 0.0, 0.0, 1.02, 1.09, 1.22, 2.28, 2.58, 2.83, 4.0, 4.0, 5.31, 5.31, 5.03, 5.03, 5.31, 6.01, 8.82, 8.89, 8.06, 8.93, 8.8, 8.18, 6.64, 7.27, 6.44, 8.22, 7.27, 0.0, -8.85, -7.44, -6.4, -2.28, 1.52, 5.53, 12.93, 17.38, 16.63, 11.99, 5.94, 5.07, 4.37, 4.05, 0.0, 0.0, 0.0, 0.0, 8.85, 0.0, 0.0, 0.0, -0.0, -0.0, -0.0, -13.09, -13.09, -13.09, -12.82, -13.2, -12.82, -12.82, -12.56, -12.56, -12.37, -12.37, -12.37, -12.37, -11.8, -11.8, -11.8, -11.28, -11.28, -11.28, -10.99, -10.75, -10.43, -10.12, -9.8, -9.48, -8.87, -8.54, -7.89, -7.51, -6.84, -6.4, -5.92, -5.2, -4.92, -4.32, -3.68, -2.99, -3.19, -2.44, -1.64, -1.7, -0.86, -0.93, -0.89, 0.0, 0.0, 0.0, 0.0, 0.0, 1.09, 1.22, 2.58, 2.58, 2.83, 4.0, 3.8, 4.37, 5.03, 5.03, 5.03, 6.01, 8.38, 8.89, 8.99, 8.22, 7.27, 6.95, 6.32, 5.9, 6.17, 5.7, 4.8, -0.0, 0.0, 0.0, 0.0, 0.0, 1.78, 5.65, 11.31, 17.28, 16.47, 11.27, 7.53, 7.47, 6.72, 3.24, 0.0, 0.0, 9.8, 13.41, 12.07, 12.52, -0.0, -0.0, -0.0, -0.0, -0.0, -13.09, -13.09, -13.09, -12.82, -12.82, -12.82, -12.65, -12.37, -12.37, -12.37, -12.37, -12.37, -11.8, -11.8, -11.8, -11.8, -11.28, -11.28, -11.28, -11.33, -10.75, -10.43, -10.12, -9.5, -8.87, -8.87, -8.54, -7.89, -7.51, -6.84, -6.4, -5.92, -5.2, -4.92, -4.32, -3.68, -3.68, -2.99, -2.44, -1.58, -1.58, -0.8, -0.86, -0.86, -0.89, 0.0, 0.0, 0.0, 0.0, 0.0, 1.09, 1.16, 1.33, 2.46, 2.69, 3.8, 3.8, 4.14, 5.03, 5.03, 5.03, 7.89, 8.49, 8.63, 8.48, 9.33, 8.4, 6.64, 5.46, 4.4, 5.7, 3.53, 5.2, 12.52, 12.96, 9.48, 4.52, 5.99, 8.53, 11.7, 13.28, 12.13, 11.45, 12.28, 11.96, 8.2, 0.0, -0.0, 3.36, 9.17, 11.2, 10.41, 3.82, -0.0, -0.0, -0.0, -0.0, -0.0, -13.09, -13.09, -13.09, -12.7, -12.65, -12.65, -12.65, -12.37, -12.37, -12.37, -12.0, -11.8, -11.8, -11.8, -11.8, -11.52, -11.87, -11.87, -11.58, -11.33, -10.99, -10.12, -9.8, -9.19, -8.58, -8.24, -7.89, -7.89, -7.24, -6.84, -6.4, -5.7, -5.2, -4.92, -4.92, -4.32, -3.68, -2.88, -2.19, -2.19, -1.58, -1.58, -0.8, -0.86, -0.86, 0.0, 0.0, 0.0, 0.0, 0.0, 0.0, 0.0, 1.16, 1.26, 2.83, 2.69, 3.8, 3.6, 4.46, 4.46, 4.75, 6.9, 8.49, 8.56, 8.17, 9.2, 9.33, 8.91, 6.95, 5.46, 5.7, 5.95, 8.22, 10.8, 12.52, 13.41, 9.8, 11.44, 11.33, 13.27, 10.89, 10.54, 14.33, 17.29, 16.09, 11.43, -0.0, -0.0, 7.19, 10.01, 10.01, 8.53, 2.82, -0.0, -0.0, -0.0, -0.0, -0.0, -12.7, -12.7, -12.7, -12.54, -12.27, -12.27, -12.27, -12.27, -12.0, -11.8, -11.8, -11.8, -11.8, -11.8, -12.16, -11.87, -11.87, -11.87, -11.58, -11.28, -10.94, -9.77, -9.48, -8.87, -8.58, -7.96, -7.6, -7.24, -7.24, -6.84, -6.4, -5.7, -5.2, -4.66, -4.92, -4.32, -3.53, -2.88, -2.19, -2.19, -1.48, -1.48, -0.8, -0.8, -0.8, -0.86, -0.82, 0.0, 0.0, 0.0, 0.0, 0.0, 0.0, 1.11, 1.26, 2.69, 2.69, 3.6, 3.6, 4.46, 5.03, 5.37, 8.05, 8.14, 7.42, 7.15, 8.0, 9.11, 9.11, 9.54, 8.18, 5.7, 6.2, 10.8, 12.52, 12.96, 12.72, 13.01, 13.57, 12.0, 11.06, 10.15, 14.22, 16.29, 14.69, 8.53, 2.6, 7.27, 11.62, 12.14, 10.8, 9.3, 3.39, -0.0, -0.0, -0.0, -0.0, -0.0, -12.7, -12.54, -12.54, -12.54, -12.27, -12.27, -12.27, -12.09, -12.09, -11.44, -11.44, -11.8, -11.8, -11.87, -11.87, -12.22, -11.87, -11.58, -11.28, -10.94, -10.36, -9.78, -9.17, -8.87, -8.24, -8.24, -7.33, -6.96, -6.56, -6.84, -6.16, -5.7, -5.2, -4.48, -3.92, -3.92, -3.53, -2.88, -2.88, -2.19, -2.19, -1.48, -1.48, -1.58, -0.8, -0.8, -0.76, -0.82, -0.85, 0.0, 0.0, 0.0, 0.0, 0.0, 1.26, 1.2, 2.69, 2.54, 3.6, 4.46, 4.46, 4.75, 7.5, 7.85, 7.03, 7.15, 8.0, 9.11, 9.39, 9.83, 9.83, 9.83, 8.18, 7.9, 10.8, 12.52, 12.96, 12.96, 13.44, 11.8, 10.43, 10.43, 11.06, 10.08, 8.13, 5.94, 10.12, 8.93, 10.73, 11.18, 11.28, 11.03, 5.0, -0.0, -0.0, -0.0, -0.0, -0.0, -12.54, -12.16, -12.16, -12.16, -11.99, -11.72, -11.72, -11.72, -11.72, -11.44, -11.8, -11.8, -11.87, -12.22, -12.22, -11.87, -11.87, -11.28, -10.94, -10.65, -10.06, -9.78, -9.17, -8.85, -8.24, -7.61, -7.61, -7.24, -6.84, -6.16, -5.7, -5.7, -5.0, -4.48, -3.92, -3.92, -3.33, -2.71, -2.71, -2.88, -2.19, -2.19, -2.19, -1.48, -1.58, -1.58, -1.52, -0.82, -0.82, -0.85, -0.85, 0.0, 0.0, 0.0, 0.0, 1.2, 2.33, 2.54, 3.6, 3.6, 4.46, 4.75, 7.06, 7.54, 6.64, 5.43, 6.64, 8.4, 9.11, 9.83, 10.28, 9.97, 10.28, 9.83, 7.9, 10.4, 12.52, 12.3, 12.72, 11.53, 10.12, 10.12, 8.94, 4.88, -1.81, 11.41, 15.78, 11.45, -0.0, -0.0, 5.0, 11.18, 0.0, -0.0, -0.0, -0.0, -0.0, -0.0, -12.42, -12.42, -11.62, -11.62, -11.62, -11.35, -11.72, -11.52, -11.52, -11.58, -12.16, -11.87, -12.22, -11.87, -11.87, -11.87, -11.28, -10.69, -10.65, -10.06, -9.78, -9.46, -8.85, -8.85, -8.24, -7.9, -7.9, -6.97, -6.58, -6.16, -5.7, -5.0, -5.0, -4.48, -3.92, -3.92, -3.33, -3.33, -2.71, -2.88, -2.88, -2.19, -2.19, -2.19, -2.34, -1.58, -1.52, -1.52, -0.82, -0.79, -0.85, -0.82, -0.89, 0.0, 0.0, 1.2, 1.2, 2.69, 2.54, 3.6, 4.22, 4.22, 5.93, 7.6, 6.8, 5.37, 5.63, 4.2, 6.95, 8.91, 9.83, 10.28, 9.75, 10.28, 9.2, 11.18, 12.07, 11.87, 12.3, 9.17, 9.48, 8.31, 8.18, 0.0, 0.0, 17.59, 15.36, 12.58, -0.0, -4.6, -5.0, -7.9, -11.62, -0.0, -0.0, -0.0, -0.0, -0.0, -11.88, -11.88, -11.62, -11.62, -11.62, -11.44, -11.52, -11.52, -11.58, -12.16, -12.16, -11.87, -11.87, -11.87, -11.87, -11.28, -10.36, -10.3, -10.06, -9.78, -9.78, -9.46, -8.85, -8.24, -8.24, -7.61, -7.26, -7.26, -6.87, -6.16, -5.48, -5.48, -5.0, -4.48, -4.48, -3.92, -4.15, -3.53, -3.53, -2.88, -2.88, -2.19, -2.19, -2.19, -2.34, -2.34, -1.58, -1.63, -1.63, -1.56, -0.79, -0.82, -0.85, 0.0, 0.0, 0.0, 1.2, 1.2, 2.54, 3.6, 3.4, 4.75, 5.93, 7.45, 7.21, 5.37, 4.42, 2.99, 4.6, 5.7, 7.27, 7.27, 10.28, 10.28, 10.28, 10.73, 11.62, 12.07, 8.85, 8.85, 9.17, 9.8, 4.45, 3.27, 5.82, 18.78, 14.11, 12.04, 2.93, -3.68, -5.75, -9.3, -11.18, -10.0, -0.0, -0.0, -0.0, -0.0, -11.5, -11.5, -11.88, -11.44, -11.44, -11.81, -11.52, -11.88, -11.58, -11.8, -11.52, -11.87, -11.52, -11.28, -10.94, -10.65, -10.06, -10.06, -10.06, -9.78, -9.46, -9.46, -8.85, -8.24, -7.91, -7.91, -7.56, -7.56, -6.61, -6.2, -6.2, -5.75, -5.26, -5.26, -4.73, -4.15, -4.15, -3.53, -3.53, -2.88, -2.88, -2.88, -2.34, -2.34, -2.34, -2.34, -2.34, -2.41, -1.63, -1.63, -1.56, -1.69, -0.85, -0.93, 0.0, 0.0, 0.0, 1.2, 2.54, 2.54, 3.6, 3.91, 4.75, 6.08, 8.05, 6.7, 4.68, 3.6, 2.02, 2.6, -0.0, -0.0, -0.0, 7.27, 9.83, 8.8, 10.73, 11.62, 8.85, 5.6, 5.6, 7.44, 5.94, 7.1, 8.62, 17.88, 12.39, 9.6, 5.95, -2.19, -6.98, -10.4, -11.62, -11.18, -5.0, -0.0, -0.0, -0.0, -11.34, -11.34, -11.72, -11.44, -11.81, -11.52, -11.52, -11.23, -11.58, -11.58, -11.28, -11.28, -10.94, -10.36, -10.65, -10.06, -10.06, -10.06, -9.78, -9.46, -9.46, -8.85, -8.85, -8.24, -7.91, -7.91, -7.27, -7.27, -6.9, -6.9, -6.2, -5.75, -5.75, -5.26, -4.73, -4.73, -4.15, -4.15, -3.76, -3.76, -3.07, -3.07, -2.95, -2.25, -2.25, -2.25, -2.41, -2.41, -2.41, -1.63, -1.56, -1.56, -0.78, -0.85, -0.89, 0.0, 0.0, 0.0, 1.14, 2.54, 2.54, 3.6, 4.14, 5.69, 7.2, 7.89, 6.01, 4.21, 2.98, 2.1, 2.6, 3.39, 4.8, 9.2, 10.28, 10.28, 10.28, 0.0, 0.0, 0.0, 0.0, 0.0, 2.94, 4.12, 4.05, 0.0, 13.39, 10.4, 9.3, -0.0, -6.97, -10.4, -11.62, -11.62, -11.18, -0.0, -0.0, -0.0, -11.34, -11.34, -11.72, -11.44, -11.44, -11.16, -11.16, -10.88, -11.23, -11.23, -11.23, -10.65, -10.65, -10.06, -10.06, -10.06, -10.06, -9.78, -9.46, -9.46, -9.13, -8.85, -8.53, -7.93, -7.61, -7.6, -7.27, -7.27, -6.9, -6.9, -6.5, -6.04, -6.04, -5.32, -5.32, -4.8, -5.0, -4.4, -3.76, -3.76, -3.07, -2.95, -2.95, -2.95, -2.95, -2.41, -2.41, -2.41, -2.6, -2.6, -1.69, -1.62, -1.54, -0.85, -0.81, 0.0, 0.0, 0.0, 1.05, 1.14, 2.54, 2.54, 2.99, 4.83, 5.69, 8.24, 7.6, 5.31, 2.98, 2.02, 2.49, 3.39, 4.6, 8.8, 9.83, 9.83, 9.83, 0.0, 0.0, 0.0, -9.17, -7.69, -3.07, 0.0, 0.0, -12.39, 13.59, 13.59, 9.3, 10.0, -5.2, -8.22, -11.45, -11.62, -11.18, -7.9, -7.9, -7.9, -11.34, -11.34, -11.34, -11.07, -11.07, -10.8, -11.16, -10.65, -10.65, -10.65, -10.3, -10.06, -10.06, -10.06, -10.06, -9.78, -9.48, -9.17, -9.46, -9.13, -8.85, -8.53, -8.53, -7.93, -7.61, -7.6, -7.27, -7.27, -6.9, -6.63, -6.24, -6.24, -5.8, -5.8, -5.32, -5.32, -4.8, -5.0, -4.4, -3.76, -3.76, -3.61, -2.95, -2.95, -3.16, -3.16, -2.41, -2.41, -2.6, -2.6, -2.49, -1.62, -1.62, -0.78, -0.81, -0.89, 0.0, 0.0, 0.0, 0.0, 1.14, 1.32, 2.54, 3.15, 3.8, 6.01, 8.48, 7.44, 4.6, 2.49, 2.49, 3.25, 4.4, 6.64, 6.64, 9.39, 0.0, 0.0, 0.0, -11.62, -11.2, -9.48, -8.85, -4.23, -3.9, -7.61, -13.91, 11.06, 11.87, 11.62, 0.0, -5.2, -11.45, -12.07, -11.62, -11.62, -11.62, -11.62, -10.96, -10.96, -10.79, -10.51, -10.87, -10.59, -10.59, -10.59, -10.06, -10.06, -10.06, -10.06, -10.06, -9.78, -9.78, -9.17, -9.17, -9.17, -9.13, -8.85, -8.85, -8.53, -8.24, -7.93, -7.61, -7.32, -7.27, -7.27, -6.63, -6.63, -6.24, -6.24, -5.8, -5.8, -5.8, -5.32, -4.8, -5.09, -4.5, -4.23, -3.61, -3.61, -3.61, -3.16, -3.16, -3.16, -3.16, -2.6, -2.6, -2.6, -2.49, -1.62, -1.62, -1.68, -0.81, -0.81, -0.85, 0.0, 0.0, 0.0, 0.0, 1.2, 1.4, 1.67, 3.8, 3.8, 4.96, 8.0, 8.94, 6.32, 3.49, 3.53, 3.25, -0.0, -0.0, -0.0, 0.0, 0.0, 0.0, 0.0, -12.52, -12.72, -8.85, -5.81, -3.47, -4.56, -7.3, -16.09, 10.12, 13.41, 0.0, 0.0, -12.52, -12.96, -12.07, -12.07, -12.07, -12.07, -10.79, -10.79, -10.79, -10.51, -10.51, -10.51, -10.01, -10.01, -10.01, -9.72, -9.46, -9.78, -9.46, -9.17, -9.17, -9.17, -9.17, -9.17, -8.85, -8.85, -8.53, -8.24, -8.24, -7.93, -7.32, -6.98, -7.27, -7.27, -6.63, -6.63, -6.24, -6.24, -5.8, -5.8, -5.8, -5.32, -5.09, -5.09, -4.23, -4.23, -4.23, -3.61, -3.85, -3.85, -3.16, -3.16, -3.39, -3.39, -2.6, -2.6, -2.49, -1.76, -1.76, -1.68, -0.85, -0.81, -0.89, -0.85, 0.0, 0.0, 0.0, 0.0, 0.0, 1.4, 1.67, 2.06, 4.0, 4.0, 6.32, 8.94, 6.64, 5.0, -0.0, -0.0, -0.0, -0.0, -0.0, 0.0, 0.0, 0.0, -12.07, -10.79, -10.12, -6.16, -3.45, -1.97, -2.42, -3.9, -10.12, 0.0, 0.0, -8.85, -8.53, -11.2, -11.2, -10.8, -10.8, -10.8, -10.79, -10.79, -10.79, -10.15, -9.94, -9.94, -9.66, -9.76, -9.76, -9.46, -9.46, -9.46, -9.46, -9.17, -9.17, -9.17, -8.87, -8.85, -8.85, -8.85, -8.53, -8.24, -8.24, -7.93, -7.32, -6.98, -7.27, -7.27, -6.63, -6.63, -6.24, -6.24, -6.24, -5.8, -5.8, -5.32, -5.09, -5.09, -4.8, -4.8, -4.5, -4.5, -3.85, -3.85, -3.16, -3.39, -3.39, -3.39, -2.6, -2.49, -2.49, -1.76, -1.76, -1.68, -0.85, -0.81, -0.81, -0.89, 0.0, 0.0, 0.0, 0.0, 0.0, 0.0, 1.4, 1.67, 1.75, 2.17, 2.17, 6.32, 9.39, 8.4, 2.97, -0.0, -0.0, -0.0, -0.0, 0.0, 0.0, 0.0, -8.22, -10.79, -9.8, -7.32, -3.36, 0.0, 0.0, 0.0, 0.0, 0.0, 0.0, -4.24, -4.1, -5.6, -3.96, -3.96, -3.96, -3.96, -10.79, -10.79, -10.79, -10.15, -9.94, -9.94, -9.66, -9.76, -9.76, -9.46, -9.46, -9.46, -9.46, -9.17, -9.17, -9.17, -8.87, -8.85, -8.85, -8.85, -8.53, -8.24, -8.24, -7.93, -7.32, -6.98, -7.27, -7.27, -6.63, -6.63, -6.24, -6.24, -6.24, -5.8, -5.8, -5.32, -5.09, -5.09, -4.8, -4.8, -4.5, -4.5, -3.85, -3.85, -3.16, -3.39, -3.39, -3.39, -2.6, -2.49, -2.49, -1.76, -1.76, -1.68, -0.85, -0.81, -0.81, -0.89, 0.0, 0.0, 0.0, 0.0, 0.0, 0.0, 1.4, 1.67, 1.75, 2.17, 2.17, 6.32, 9.39, 8.4, 2.97, -0.0, -0.0, -0.0, 0.0, 0.0, 0.0, 0.0, -8.22, -10.41, -8.05, -7.1, -3.16, 0.0, 0.0, 1.61, 1.74, 1.78, 0.0, 0.0, 0.0, 0.0, -3.04, -2.93, -2.93, -2.93]}]